GFSNGP_500_temp_012.txt.gz
Temp
-15 -15 -15 -15 -15 -15 -15 -15 -15 -15 -15 -15 -15 -15 -15 -16 -16 -16 -16 -16 -16 -17 -18 -18 -18 -19 -19 -20 -20 -20 -20 -20 -20 -20 -20 -21 -21 -22 -22 -23 -24 -26 -27 -29
-15 -15 -15 -15 -15 -15 -15 -15 -15 -15 -15 -15 -15 -15 -15 -16 -16 -16 -16 -16 -17 -17 -18 -19 -19 -19 -20 -20 -20 -20 -20 -21 -20 -20 -21 -21 -22 -22 -23 -24 -26 -27 -28 -30
-15 -15 -15 -15 -15 -15 -15 -15 -15 -15 -16 -16 -16 -16 -16 -16 -16 -16 -17 -17 -17 -17 -18 -19 -20 -20 -20 -21 -21 -21 -21 -20 -20 -21 -21 -22 -22 -23 -24 -26 -27 -29 -30 -31
-15 -15 -15 -15 -15 -15 -16 -16 -16 -16 -16 -16 -16 -16 -16 -16 -16 -17 -17 -17 -18 -18 -19 -20 -20 -20 -21 -21 -21 -21 -21 -21 -21 -21 -22 -23 -24 -25 -26 -27 -29 -30 -31 -32
-15 -15 -15 -15 -15 -16 -16 -16 -16 -16 -16 -16 -16 -16 -17 -16 -17 -17 -18 -18 -19 -19 -20 -20 -20 -21 -21 -21 -21 -21 -21 -21 -22 -22 -23 -24 -25 -27 -28 -29 -30 -31 -32 -33
-16 -16 -15 -15 -16 -16 -16 -15 -17 -16 -16 -16 -16 -16 -17 -17 -17 -18 -18 -19 -20 -20 -20 -20 -20 -21 -21 -21 -21 -22 -22 -22 -23 -23 -24 -25 -27 -28 -29 -30 -31 -32 -32 -33
-15 -15 -15 -16 -16 -16 -16 -16 -16 -16 -17 -17 -17 -17 -17 -17 -18 -19 -19 -19 -20 -20 -20 -20 -21 -21 -21 -22 -22 -22 -23 -23 -24 -24 -25 -27 -28 -29 -30 -31 -31 -32 -33 -33
-16 -16 -15 -16 -17 -17 -17 -17 -17 -17 -17 -17 -17 -17 -17 -18 -18 -19 -19 -20 -20 -20 -21 -21 -21 -21 -22 -22 -23 -23 -23 -24 -24 -25 -27 -28 -29 -30 -31 -31 -32 -33 -33 -33
-16 -16 -16 -17 -17 -17 -17 -17 -17 -17 -18 -18 -18 -18 -18 -18 -18 -19 -19 -20 -21 -21 -21 -21 -22 -22 -23 -23 -23 -24 -24 -24 -25 -26 -28 -29 -30 -31 -31 -32 -33 -33 -33 -33
-16 -17 -17 -17 -17 -17 -17 -18 -18 -18 -18 -18 -18 -18 -18 -19 -19 -19 -20 -21 -21 -22 -21 -22 -23 -23 -23 -23 -24 -24 -24 -25 -26 -27 -29 -30 -31 -31 -32 -33 -33 -33 -33 -33
-16 -17 -17 -18 -18 -18 -18 -18 -18 -18 -18 -19 -19 -19 -19 -20 -20 -20 -21 -21 -22 -22 -22 -22 -23 -24 -24 -24 -24 -24 -25 -27 -28 -29 -29 -31 -32 -32 -33 -33 -33 -34 -33 -33
-17 -17 -17 -17 -18 -18 -18 -18 -18 -19 -19 -19 -19 -20 -20 -20 -20 -21 -20 -21 -22 -22 -23 -23 -24 -24 -24 -25 -25 -26 -27 -28 -29 -30 -30 -31 -32 -33 -33 -33 -33 -34 -34 -34
-17 -18 -18 -18 -18 -18 -19 -19 -19 -19 -19 -19 -20 -21 -20 -20 -21 -20 -21 -22 -22 -23 -23 -23 -24 -25 -25 -25 -26 -27 -28 -29 -30 -30 -31 -32 -33 -33 -34 -34 -34 -34 -34 -34
-19 -19 -19 -19 -19 -19 -19 -19 -19 -20 -20 -20 -21 -21 -21 -21 -21 -21 -22 -22 -23 -23 -23 -24 -25 -25 -25 -26 -27 -28 -29 -30 -31 -31 -32 -33 -33 -34 -34 -34 -34 -34 -34 -34
-19 -19 -19 -19 -19 -19 -19 -20 -20 -20 -20 -21 -21 -21 -21 -21 -22 -22 -22 -23 -23 -23 -24 -25 -25 -26 -26 -27 -28 -29 -30 -31 -31 -32 -33 -33 -34 -34 -34 -34 -34 -34 -34 -34
-19 -19 -19 -19 -19 -20 -20 -20 -20 -20 -21 -21 -21 -21 -22 -22 -22 -22 -23 -23 -24 -25 -26 -26 -26 -27 -28 -28 -29 -30 -31 -31 -32 -33 -33 -34 -34 -34 -35 -35 -35 -35 -34 -34
-19 -19 -19 -20 -20 -20 -20 -20 -20 -21 -21 -21 -22 -22 -23 -22 -22 -24 -24 -24 -25 -26 -26 -26 -27 -28 -29 -29 -30 -30 -31 -32 -32 -33 -34 -34 -34 -34 -35 -35 -35 -35 -35 -35
-20 -20 -20 -20 -20 -20 -20 -21 -21 -21 -21 -22 -23 -23 -23 -23 -23 -23 -25 -26 -26 -26 -27 -28 -28 -29 -30 -30 -30 -31 -32 -33 -33 -33 -34 -34 -34 -35 -35 -35 -35 -35 -35 -35
-20 -20 -20 -21 -21 -21 -21 -22 -21 -22 -23 -23 -23 -23 -24 -24 -25 -25 -25 -26 -27 -27 -28 -29 -29 -30 -30 -31 -31 -32 -33 -33 -33 -34 -34 -34 -34 -35 -35 -35 -35 -35 -35 -35
-20 -20 -20 -21 -21 -22 -22 -23 -24 -23 -23 -23 -24 -25 -25 -25 -25 -26 -27 -28 -29 -29 -29 -30 -30 -30 -30 -31 -31 -33 -33 -34 -34 -34 -35 -35 -35 -35 -35 -35 -35 -35 -35 -35
-21 -21 -22 -22 -23 -24 -24 -24 -24 -24 -24 -25 -25 -25 -25 -26 -27 -28 -29 -29 -30 -30 -30 -30 -31 -31 -31 -31 -31 -33 -34 -34 -35 -35 -35 -35 -35 -35 -35 -35 -35 -35 -35 -35
-22 -23 -24 -24 -25 -25 -25 -24 -24 -24 -25 -25 -26 -27 -28 -29 -29 -29 -30 -30 -30 -31 -31 -31 -31 -32 -32 -32 -32 -33 -34 -34 -35 -35 -35 -35 -35 -35 -35 -35 -35 -35 -35 -35
-24 -25 -25 -25 -25 -25 -26 -26 -26 -26 -27 -28 -29 -29 -29 -29 -30 -30 -30 -30 -31 -31 -31 -31 -32 -32 -32 -32 -32 -33 -34 -34 -35 -35 -35 -35 -35 -35 -35 -35 -35 -35 -35 -35
-26 -26 -26 -26 -26 -26 -27 -28 -29 -29 -29 -29 -29 -29 -30 -30 -30 -31 -31 -31 -31 -31 -32 -32 -32 -32 -32 -32 -32 -33 -34 -34 -35 -35 -35 -35 -35 -35 -35 -35 -35 -35 -35 -35
-27 -27 -27 -28 -28 -29 -29 -29 -29 -29 -29 -29 -30 -30 -31 -31 -31 -31 -31 -31 -31 -32 -32 -32 -32 -32 -32 -32 -32 -33 -34 -35 -35 -35 -36 -36 -35 -35 -35 -35 -35 -35 -35 -35
-28 -29 -29 -29 -29 -29 -29 -29 -29 -30 -30 -30 -31 -31 -31 -32 -32 -32 -32 -32 -32 -32 -32 -32 -32 -32 -32 -32 -33 -33 -34 -35 -35 -36 -36 -36 -36 -36 -35 -35 -35 -35 -35 -35
-29 -29 -29 -29 -29 -30 -30 -30 -30 -31 -31 -31 -31 -31 -32 -32 -32 -32 -32 -32 -32 -33 -33 -33 -33 -33 -33 -33 -33 -34 -34 -35 -35 -36 -36 -36 -36 -36 -36 -36 -35 -35 -35 -35

GFSNGP_500_temp_015.txt.gz
Temp
-15 -15 -15 -15 -15 -15 -15 -15 -15 -15 -15 -15 -15 -15 -15 -15 -16 -16 -16 -16 -16 -17 -17 -17 -18 -18 -19 -19 -20 -20 -20 -20 -20 -20 -21 -21 -21 -21 -22 -22 -23 -23 -24 -26
-15 -15 -15 -15 -15 -15 -15 -15 -15 -15 -15 -15 -15 -15 -16 -16 -16 -16 -16 -16 -17 -17 -17 -18 -18 -19 -20 -20 -20 -20 -20 -21 -21 -21 -21 -22 -22 -22 -22 -23 -23 -24 -26 -28
-15 -15 -15 -15 -15 -15 -15 -15 -15 -15 -16 -16 -16 -16 -16 -16 -16 -16 -16 -17 -17 -17 -17 -18 -19 -19 -20 -20 -20 -21 -21 -21 -22 -22 -22 -22 -22 -23 -23 -23 -24 -26 -28 -29
-15 -15 -15 -15 -15 -15 -15 -16 -16 -16 -16 -16 -16 -16 -16 -17 -17 -17 -17 -17 -17 -18 -18 -18 -19 -20 -20 -20 -21 -21 -21 -22 -22 -22 -23 -23 -23 -23 -24 -25 -26 -28 -29 -30
-15 -15 -14 -15 -15 -15 -15 -15 -16 -16 -16 -16 -16 -16 -17 -17 -17 -17 -18 -18 -18 -18 -19 -19 -20 -20 -20 -21 -21 -22 -22 -22 -23 -23 -23 -23 -23 -24 -25 -26 -28 -29 -30 -31
-15 -15 -14 -15 -15 -15 -16 -15 -16 -16 -16 -16 -17 -17 -17 -17 -18 -18 -18 -18 -19 -19 -19 -20 -20 -21 -21 -22 -22 -22 -23 -23 -23 -23 -24 -24 -24 -25 -26 -28 -29 -30 -31 -32
-15 -15 -14 -15 -16 -16 -16 -16 -16 -16 -17 -17 -17 -17 -18 -18 -18 -18 -19 -19 -19 -20 -20 -20 -21 -21 -22 -22 -22 -22 -23 -23 -23 -24 -24 -24 -25 -26 -28 -29 -30 -31 -31 -32
-15 -15 -15 -16 -16 -16 -16 -16 -17 -17 -17 -18 -18 -18 -18 -18 -19 -19 -19 -19 -19 -20 -20 -20 -20 -21 -22 -22 -23 -23 -23 -23 -24 -24 -24 -25 -26 -27 -29 -30 -31 -32 -32 -33
-15 -16 -16 -16 -16 -16 -16 -17 -17 -17 -18 -18 -18 -18 -18 -19 -19 -19 -19 -19 -20 -20 -20 -20 -21 -22 -22 -22 -23 -23 -23 -24 -24 -24 -25 -26 -27 -28 -30 -31 -32 -33 -33 -33
-16 -17 -17 -17 -16 -17 -17 -17 -18 -18 -18 -18 -18 -18 -18 -19 -19 -19 -20 -20 -20 -20 -20 -21 -21 -22 -22 -23 -23 -24 -24 -24 -24 -25 -26 -27 -28 -30 -31 -32 -33 -33 -33 -33
-16 -17 -16 -17 -17 -17 -18 -18 -18 -18 -19 -19 -19 -19 -19 -19 -20 -20 -20 -21 -21 -21 -21 -21 -22 -23 -23 -23 -23 -23 -24 -24 -25 -26 -27 -28 -29 -31 -32 -33 -33 -34 -34 -33
-16 -17 -17 -17 -18 -18 -18 -18 -18 -19 -19 -19 -19 -19 -20 -20 -20 -21 -21 -21 -21 -21 -21 -22 -23 -23 -25 -24 -24 -24 -25 -25 -26 -27 -28 -29 -30 -31 -32 -33 -33 -34 -34 -34
-17 -17 -18 -18 -18 -18 -19 -19 -19 -19 -19 -19 -20 -20 -20 -20 -21 -21 -21 -21 -21 -22 -22 -22 -24 -25 -25 -24 -25 -25 -25 -26 -27 -28 -29 -30 -31 -32 -33 -33 -34 -34 -34 -34
-18 -18 -18 -19 -19 -19 -19 -19 -19 -19 -19 -19 -20 -20 -20 -21 -21 -21 -21 -21 -22 -22 -22 -24 -24 -25 -25 -24 -25 -26 -26 -28 -29 -29 -30 -30 -31 -32 -33 -34 -34 -34 -35 -35
-19 -19 -19 -19 -19 -19 -19 -19 -20 -20 -20 -20 -20 -21 -21 -21 -22 -22 -22 -22 -22 -22 -23 -24 -25 -25 -25 -25 -26 -27 -28 -29 -30 -30 -30 -31 -32 -33 -33 -34 -34 -35 -35 -35
-19 -19 -19 -19 -19 -19 -19 -20 -20 -20 -20 -21 -21 -21 -22 -22 -22 -23 -23 -23 -22 -23 -24 -25 -25 -25 -26 -27 -28 -29 -29 -30 -30 -30 -31 -32 -33 -33 -34 -34 -34 -35 -35 -35
-20 -20 -20 -20 -20 -20 -20 -20 -21 -21 -21 -21 -22 -22 -22 -23 -23 -23 -23 -23 -23 -24 -25 -25 -26 -27 -28 -28 -29 -30 -30 -31 -31 -31 -32 -33 -33 -34 -34 -34 -34 -35 -35 -35
-20 -20 -20 -20 -20 -20 -21 -21 -21 -21 -22 -22 -23 -23 -23 -24 -24 -24 -24 -25 -25 -25 -25 -26 -28 -28 -29 -29 -30 -30 -30 -31 -31 -32 -33 -33 -34 -34 -34 -34 -35 -35 -35 -35
-20 -20 -20 -21 -21 -21 -21 -22 -22 -22 -22 -23 -24 -25 -25 -25 -25 -25 -25 -25 -26 -27 -28 -29 -29 -29 -30 -30 -30 -31 -31 -31 -32 -32 -33 -34 -34 -35 -35 -35 -35 -35 -35 -35
-20 -20 -20 -21 -22 -22 -22 -23 -23 -23 -24 -25 -25 -25 -25 -25 -25 -26 -27 -28 -29 -29 -29 -29 -30 -31 -31 -31 -31 -31 -31 -32 -32 -32 -33 -34 -35 -35 -35 -35 -35 -35 -35 -35
-21 -22 -22 -23 -23 -24 -24 -24 -25 -25 -26 -25 -25 -25 -26 -26 -27 -29 -29 -29 -29 -30 -30 -31 -31 -31 -31 -31 -31 -32 -32 -32 -32 -32 -33 -34 -35 -35 -35 -35 -35 -35 -35 -35
-23 -23 -23 -24 -24 -24 -25 -26 -26 -26 -26 -27 -27 -28 -29 -29 -29 -29 -29 -29 -30 -30 -31 -31 -31 -31 -32 -32 -32 -32 -32 -32 -32 -32 -33 -34 -35 -35 -35 -35 -35 -35 -35 -35
-24 -25 -25 -26 -26 -26 -27 -27 -27 -27 -28 -28 -29 -29 -29 -29 -29 -29 -30 -30 -31 -31 -31 -32 -32 -32 -32 -32 -32 -32 -33 -32 -32 -33 -33 -34 -35 -35 -35 -35 -35 -35 -35 -35
-26 -26 -26 -26 -27 -28 -28 -28 -29 -29 -29 -29 -29 -29 -30 -29 -30 -30 -31 -31 -31 -32 -32 -32 -32 -32 -32 -33 -33 -33 -33 -33 -33 -33 -34 -34 -35 -35 -35 -36 -36 -36 -36 -36
-26 -26 -27 -28 -29 -29 -29 -29 -29 -29 -29 -29 -30 -30 -30 -30 -31 -31 -31 -31 -32 -32 -32 -32 -33 -33 -33 -33 -33 -33 -33 -33 -33 -34 -34 -35 -35 -35 -36 -36 -36 -36 -36 -36
-27 -29 -29 -30 -29 -30 -30 -30 -30 -30 -30 -30 -30 -30 -30 -31 -31 -32 -32 -32 -33 -33 -33 -33 -33 -33 -33 -34 -34 -34 -34 -34 -34 -34 -34 -35 -35 -36 -36 -36 -36 -36 -36 -36
-29 -30 -30 -30 -30 -30 -30 -30 -30 -30 -30 -30 -30 -30 -31 -31 -31 -32 -32 -33 -33 -33 -33 -33 -33 -33 -34 -34 -34 -34 -34 -34 -34 -34 -35 -35 -36 -36 -36 -36 -36 -36 -36 -36

GFSNGP_500_temp_018.txt.gz
Temp
-15 -15 -15 -15 -15 -15 -15 -15 -15 -15 -15 -16 -15 -15 -15 -15 -15 -16 -16 -16 -16 -16 -17 -17 -17 -17 -18 -18 -19 -19 -19 -20 -20 -20 -21 -21 -21 -22 -22 -22 -22 -23 -23 -23
-15 -15 -15 -15 -15 -15 -15 -15 -15 -15 -15 -16 -15 -16 -16 -16 -16 -16 -16 -16 -16 -17 -17 -17 -18 -18 -18 -19 -19 -19 -19 -20 -20 -21 -21 -21 -22 -22 -23 -23 -23 -23 -23 -24
-15 -15 -15 -14 -15 -15 -15 -15 -15 -15 -16 -15 -15 -16 -16 -16 -16 -16 -16 -17 -17 -17 -18 -18 -18 -18 -19 -19 -19 -19 -20 -21 -21 -21 -22 -22 -22 -23 -23 -23 -23 -24 -24 -26
-15 -15 -14 -15 -15 -15 -15 -15 -15 -16 -16 -16 -16 -16 -16 -16 -16 -17 -17 -17 -18 -18 -18 -18 -19 -19 -19 -19 -20 -20 -21 -21 -21 -22 -22 -22 -23 -23 -23 -23 -24 -24 -25 -27
-15 -15 -14 -15 -15 -15 -15 -15 -16 -16 -16 -16 -16 -16 -16 -17 -17 -17 -18 -18 -18 -18 -19 -19 -19 -19 -20 -20 -21 -21 -21 -21 -22 -22 -22 -23 -23 -23 -23 -24 -24 -24 -27 -28
-15 -15 -14 -15 -15 -15 -15 -15 -15 -15 -16 -16 -16 -16 -17 -17 -18 -18 -18 -18 -19 -19 -19 -19 -20 -20 -20 -20 -21 -21 -21 -22 -22 -22 -23 -23 -24 -23 -24 -24 -24 -26 -28 -29
-15 -15 -14 -15 -15 -15 -15 -15 -15 -15 -16 -16 -17 -17 -18 -18 -18 -18 -19 -19 -19 -19 -19 -19 -20 -20 -20 -21 -21 -21 -22 -22 -22 -23 -23 -24 -24 -24 -24 -24 -25 -27 -29 -31
-15 -15 -14 -15 -15 -15 -15 -15 -15 -16 -16 -17 -17 -18 -18 -18 -18 -19 -19 -19 -19 -19 -19 -19 -20 -20 -21 -21 -21 -22 -22 -23 -23 -24 -25 -24 -24 -24 -24 -25 -27 -28 -30 -32
-15 -15 -15 -15 -15 -15 -15 -16 -16 -17 -17 -17 -18 -18 -18 -18 -19 -19 -19 -19 -19 -20 -20 -20 -20 -20 -21 -21 -22 -22 -22 -23 -24 -25 -25 -24 -24 -25 -25 -27 -28 -29 -31 -32
-15 -15 -15 -15 -15 -16 -16 -16 -17 -17 -18 -18 -18 -18 -19 -19 -19 -19 -19 -20 -20 -20 -20 -21 -21 -21 -22 -22 -22 -22 -23 -24 -24 -25 -25 -25 -25 -26 -27 -28 -29 -31 -32 -33
-15 -16 -16 -16 -17 -17 -17 -17 -17 -18 -18 -18 -19 -19 -19 -19 -19 -19 -20 -20 -20 -20 -20 -21 -21 -21 -22 -22 -22 -23 -24 -24 -24 -25 -26 -26 -26 -27 -28 -29 -30 -31 -33 -33
-16 -16 -17 -17 -17 -17 -18 -18 -18 -18 -18 -19 -19 -19 -19 -19 -19 -20 -20 -20 -20 -21 -21 -22 -22 -21 -21 -22 -23 -24 -24 -25 -25 -26 -27 -27 -27 -28 -29 -30 -31 -32 -33 -34
-17 -17 -17 -18 -18 -18 -18 -19 -19 -19 -19 -19 -19 -20 -20 -20 -20 -21 -21 -21 -21 -21 -22 -21 -21 -21 -23 -22 -24 -24 -24 -25 -27 -27 -28 -28 -29 -29 -30 -31 -32 -33 -33 -34
-17 -18 -18 -18 -18 -19 -19 -19 -19 -19 -19 -19 -20 -20 -20 -20 -21 -21 -21 -21 -22 -22 -22 -22 -22 -22 -22 -24 -24 -24 -25 -27 -28 -29 -29 -29 -30 -30 -31 -32 -32 -33 -33 -34
-18 -18 -19 -19 -19 -19 -19 -20 -20 -19 -20 -20 -20 -20 -20 -21 -21 -21 -22 -23 -23 -23 -23 -23 -23 -23 -23 -24 -25 -26 -27 -29 -29 -30 -30 -30 -31 -31 -31 -32 -33 -33 -34 -34
-19 -19 -19 -19 -19 -19 -20 -20 -20 -20 -20 -20 -20 -21 -21 -21 -22 -23 -23 -23 -24 -24 -24 -24 -24 -24 -25 -26 -27 -28 -29 -30 -30 -30 -30 -31 -31 -32 -32 -33 -33 -34 -34 -34
-19 -19 -19 -19 -20 -20 -20 -20 -20 -21 -21 -21 -21 -22 -22 -23 -23 -23 -24 -24 -25 -25 -25 -25 -26 -27 -28 -29 -29 -29 -30 -30 -31 -31 -31 -31 -32 -32 -33 -34 -34 -34 -34 -34
-20 -20 -20 -20 -20 -20 -20 -20 -21 -21 -22 -22 -23 -23 -23 -24 -24 -24 -25 -26 -26 -26 -26 -28 -28 -29 -29 -29 -30 -30 -31 -31 -31 -31 -31 -32 -32 -32 -33 -34 -35 -35 -35 -35
-20 -20 -20 -20 -21 -21 -21 -21 -22 -22 -23 -24 -24 -25 -26 -26 -26 -26 -26 -26 -27 -27 -28 -29 -29 -29 -29 -30 -30 -31 -31 -32 -32 -32 -32 -32 -32 -32 -33 -34 -35 -35 -35 -35
-20 -20 -21 -21 -21 -22 -22 -23 -24 -24 -25 -25 -26 -26 -27 -27 -27 -27 -28 -29 -29 -29 -29 -29 -29 -30 -30 -31 -31 -32 -32 -32 -32 -32 -32 -32 -32 -33 -33 -34 -35 -35 -35 -35
-21 -21 -21 -22 -23 -23 -24 -24 -25 -25 -25 -26 -26 -27 -28 -28 -29 -29 -29 -29 -29 -30 -30 -30 -30 -31 -31 -31 -32 -32 -32 -32 -32 -33 -33 -33 -33 -33 -33 -34 -35 -35 -35 -35
-22 -23 -23 -24 -24 -24 -25 -25 -25 -26 -26 -27 -28 -29 -29 -29 -29 -29 -30 -30 -30 -30 -30 -30 -30 -31 -32 -32 -32 -33 -33 -33 -33 -33 -33 -33 -33 -33 -33 -34 -35 -35 -36 -36
-24 -24 -24 -24 -25 -25 -25 -25 -26 -27 -28 -29 -29 -29 -29 -30 -30 -30 -30 -30 -30 -30 -30 -31 -31 -32 -33 -33 -33 -33 -33 -33 -34 -34 -34 -34 -34 -33 -34 -34 -35 -35 -36 -36
-25 -25 -25 -25 -25 -26 -26 -27 -28 -29 -29 -30 -30 -30 -30 -30 -30 -30 -30 -30 -30 -30 -31 -31 -32 -32 -33 -33 -33 -33 -33 -33 -34 -34 -34 -34 -34 -34 -34 -34 -35 -35 -36 -36
-25 -25 -26 -26 -26 -27 -28 -29 -30 -30 -30 -30 -30 -30 -30 -30 -30 -30 -30 -30 -31 -31 -32 -32 -32 -32 -33 -33 -33 -34 -34 -34 -34 -34 -34 -34 -35 -35 -35 -35 -36 -36 -36 -36
-26 -26 -27 -27 -28 -29 -30 -30 -30 -30 -30 -30 -30 -30 -30 -30 -30 -30 -30 -31 -31 -31 -32 -32 -32 -33 -33 -34 -34 -34 -35 -35 -35 -35 -35 -35 -35 -35 -35 -35 -36 -36 -37 -37
-27 -28 -29 -29 -30 -30 -30 -30 -30 -30 -30 -30 -30 -30 -30 -30 -30 -31 -31 -31 -32 -32 -33 -33 -34 -34 -34 -35 -35 -35 -35 -35 -35 -36 -36 -36 -36 -36 -36 -36 -36 -37 -37 -37

GFSNGP_500_temp_021.txt.gz
Temp
-16 -16 -16 -15 -15 -15 -15 -15 -15 -15 -15 -15 -16 -15 -15 -15 -15 -16 -16 -16 -16 -16 -16 -17 -17 -17 -18 -18 -18 -19 -19 -19 -19 -20 -20 -20 -20 -21 -21 -21 -22 -22 -22 -23
-15 -15 -15 -15 -15 -15 -15 -15 -15 -15 -15 -16 -15 -15 -15 -15 -16 -16 -16 -16 -17 -17 -17 -17 -17 -18 -18 -19 -19 -19 -19 -20 -20 -20 -20 -21 -21 -21 -22 -22 -22 -22 -23 -24
-15 -15 -15 -14 -15 -15 -15 -15 -15 -15 -15 -16 -15 -15 -16 -16 -16 -16 -16 -17 -17 -17 -18 -18 -18 -19 -19 -19 -19 -19 -20 -20 -20 -21 -21 -21 -21 -22 -22 -22 -23 -23 -24 -24
-15 -15 -15 -15 -15 -15 -15 -15 -16 -15 -15 -15 -15 -16 -16 -16 -16 -16 -17 -17 -18 -18 -18 -19 -19 -19 -19 -19 -19 -19 -20 -20 -21 -21 -21 -21 -21 -22 -22 -22 -23 -24 -24 -24
-15 -15 -15 -15 -15 -15 -15 -15 -15 -15 -15 -15 -15 -16 -16 -16 -16 -17 -17 -18 -18 -18 -19 -19 -19 -19 -19 -19 -20 -20 -20 -21 -20 -21 -21 -21 -22 -22 -23 -23 -24 -24 -24 -24
-15 -15 -14 -14 -15 -14 -14 -15 -14 -15 -15 -15 -15 -16 -17 -17 -17 -17 -18 -18 -18 -18 -19 -19 -19 -20 -19 -20 -20 -20 -20 -20 -21 -22 -22 -22 -22 -23 -23 -24 -24 -24 -25 -25
-15 -15 -14 -14 -14 -14 -14 -14 -15 -15 -15 -15 -16 -16 -17 -17 -17 -17 -18 -18 -18 -19 -19 -19 -19 -20 -20 -20 -20 -20 -20 -21 -21 -22 -22 -22 -22 -24 -24 -24 -24 -25 -26 -27
-15 -15 -14 -14 -14 -14 -14 -14 -15 -15 -15 -16 -16 -16 -16 -17 -18 -18 -18 -18 -19 -19 -19 -19 -19 -20 -20 -20 -20 -21 -21 -21 -21 -21 -22 -23 -24 -24 -24 -24 -24 -26 -27 -28
-15 -15 -15 -14 -14 -14 -15 -15 -15 -15 -16 -16 -16 -17 -17 -18 -18 -19 -19 -19 -19 -19 -19 -19 -20 -20 -21 -21 -20 -21 -21 -21 -21 -22 -23 -25 -24 -25 -25 -26 -27 -27 -28 -28
-15 -15 -15 -15 -15 -15 -15 -15 -16 -16 -16 -17 -18 -18 -18 -18 -19 -19 -19 -19 -19 -19 -20 -20 -20 -21 -21 -21 -21 -21 -21 -21 -22 -24 -25 -24 -25 -25 -27 -28 -28 -28 -29 -30
-15 -16 -15 -16 -15 -15 -16 -16 -17 -17 -17 -18 -18 -18 -18 -19 -19 -19 -19 -19 -19 -20 -20 -20 -21 -21 -21 -21 -21 -22 -22 -23 -23 -24 -25 -25 -26 -27 -28 -29 -29 -30 -30 -31
-16 -15 -16 -16 -16 -17 -17 -17 -17 -17 -18 -18 -18 -18 -19 -19 -19 -19 -19 -19 -20 -20 -21 -21 -21 -22 -22 -22 -22 -22 -22 -24 -24 -25 -25 -27 -28 -29 -29 -30 -30 -31 -31 -31
-16 -16 -16 -17 -17 -17 -17 -17 -18 -18 -18 -18 -19 -19 -19 -19 -19 -20 -20 -20 -21 -21 -21 -22 -23 -23 -23 -24 -23 -23 -24 -24 -25 -26 -28 -29 -29 -30 -30 -30 -30 -31 -31 -32
-17 -17 -17 -18 -17 -18 -18 -18 -18 -18 -19 -19 -19 -19 -20 -20 -20 -21 -21 -21 -22 -22 -23 -23 -24 -24 -24 -24 -25 -25 -25 -27 -28 -29 -29 -30 -30 -30 -31 -31 -31 -32 -32 -33
-18 -18 -18 -18 -18 -18 -19 -19 -19 -19 -19 -20 -20 -20 -20 -20 -21 -21 -21 -22 -23 -24 -24 -24 -25 -25 -25 -26 -26 -27 -29 -29 -29 -29 -29 -30 -31 -31 -31 -31 -32 -32 -33 -33
-18 -18 -18 -18 -19 -19 -19 -19 -19 -19 -20 -20 -20 -20 -21 -21 -21 -22 -23 -24 -24 -24 -25 -25 -26 -26 -26 -28 -28 -29 -29 -29 -29 -29 -30 -31 -31 -31 -32 -32 -32 -33 -33 -34
-19 -19 -19 -19 -19 -19 -20 -20 -20 -20 -20 -20 -21 -21 -22 -22 -23 -24 -24 -24 -25 -26 -27 -27 -27 -27 -28 -29 -29 -29 -30 -30 -30 -30 -31 -31 -31 -32 -32 -32 -32 -33 -33 -34
-19 -19 -20 -20 -20 -20 -20 -21 -21 -21 -21 -21 -22 -22 -23 -23 -24 -25 -25 -26 -26 -27 -28 -29 -29 -29 -29 -30 -30 -30 -30 -30 -30 -31 -32 -32 -32 -32 -32 -33 -33 -33 -33 -34
-20 -20 -20 -21 -21 -21 -21 -21 -21 -21 -22 -23 -23 -24 -24 -25 -25 -26 -26 -27 -28 -29 -29 -29 -29 -30 -30 -30 -30 -30 -30 -30 -31 -32 -32 -33 -33 -33 -33 -33 -33 -33 -33 -34
-20 -21 -21 -21 -21 -22 -22 -22 -22 -23 -24 -24 -24 -25 -25 -25 -26 -27 -28 -29 -29 -29 -30 -30 -30 -30 -30 -30 -30 -30 -30 -31 -32 -32 -33 -33 -33 -33 -33 -33 -33 -33 -34 -34
-21 -21 -22 -22 -22 -22 -23 -23 -24 -24 -24 -25 -25 -25 -26 -27 -28 -29 -29 -30 -30 -30 -30 -30 -30 -30 -30 -30 -30 -31 -31 -32 -32 -33 -33 -33 -33 -33 -34 -34 -34 -34 -34 -34
-22 -22 -22 -23 -23 -24 -24 -24 -25 -25 -25 -25 -26 -26 -27 -28 -29 -30 -30 -30 -30 -30 -30 -30 -30 -30 -30 -31 -31 -32 -32 -32 -32 -33 -34 -34 -34 -34 -34 -34 -34 -34 -34 -35
-22 -23 -23 -24 -24 -25 -25 -25 -25 -25 -26 -26 -27 -28 -29 -30 -30 -30 -30 -30 -30 -30 -30 -30 -30 -30 -31 -32 -32 -32 -33 -33 -33 -33 -34 -34 -35 -35 -35 -35 -35 -35 -35 -35
-24 -24 -25 -25 -25 -25 -25 -25 -26 -26 -27 -28 -29 -29 -30 -30 -30 -30 -30 -30 -30 -30 -30 -30 -31 -31 -32 -32 -33 -33 -34 -34 -34 -35 -35 -35 -35 -35 -35 -35 -35 -35 -35 -35
-25 -25 -25 -25 -25 -26 -26 -27 -27 -28 -29 -29 -30 -30 -31 -31 -31 -30 -30 -30 -30 -30 -30 -31 -31 -32 -33 -33 -34 -34 -34 -35 -35 -35 -35 -35 -36 -36 -36 -36 -36 -36 -36 -36
-25 -25 -26 -26 -26 -27 -28 -28 -29 -30 -30 -31 -31 -31 -31 -31 -31 -31 -31 -31 -31 -31 -31 -32 -32 -33 -33 -33 -33 -34 -34 -34 -35 -35 -35 -36 -36 -36 -36 -36 -36 -36 -36 -36
-26 -26 -27 -27 -28 -29 -30 -31 -31 -31 -31 -31 -31 -31 -31 -31 -31 -31 -31 -31 -31 -32 -32 -32 -33 -33 -33 -33 -34 -34 -34 -34 -35 -35 -36 -36 -36 -36 -37 -37 -37 -37 -37 -37

GFSNGP_500_temp_027.txt.gz
Temp
-16 -15 -16 -15 -16 -16 -15 -15 -15 -16 -15 -16 -16 -15 -15 -14 -14 -14 -15 -16 -16 -15 -15 -15 -15 -16 -16 -17 -17 -18 -18 -19 -19 -19 -19 -19 -19 -19 -20 -20 -20 -21 -21 -21
-15 -15 -16 -15 -16 -16 -16 -16 -16 -15 -15 -16 -15 -15 -15 -15 -15 -16 -16 -16 -16 -16 -16 -16 -16 -17 -17 -17 -18 -18 -19 -19 -19 -19 -20 -19 -20 -20 -20 -20 -21 -21 -21 -22
-15 -15 -15 -15 -16 -16 -16 -16 -16 -16 -16 -15 -15 -15 -15 -15 -16 -16 -16 -16 -17 -17 -17 -17 -17 -18 -18 -18 -18 -19 -19 -19 -19 -19 -20 -20 -20 -20 -21 -21 -21 -22 -22 -23
-15 -15 -15 -16 -15 -16 -16 -16 -16 -15 -15 -15 -15 -15 -16 -16 -15 -15 -15 -15 -16 -17 -18 -17 -17 -18 -19 -19 -19 -18 -19 -19 -19 -20 -20 -20 -21 -21 -21 -22 -22 -22 -23 -24
-15 -15 -15 -15 -15 -16 -16 -15 -15 -15 -15 -15 -16 -16 -15 -15 -16 -16 -16 -15 -16 -16 -17 -18 -18 -19 -19 -19 -19 -20 -20 -20 -20 -20 -20 -21 -21 -22 -23 -22 -22 -23 -24 -25
-15 -15 -15 -15 -15 -15 -15 -15 -15 -15 -15 -15 -15 -15 -16 -16 -16 -15 -15 -16 -16 -17 -18 -18 -19 -19 -19 -19 -20 -19 -19 -20 -20 -20 -21 -22 -23 -23 -23 -23 -24 -24 -25 -25
-15 -15 -15 -15 -15 -15 -15 -15 -15 -15 -15 -15 -15 -15 -15 -15 -15 -15 -16 -17 -17 -17 -18 -18 -19 -19 -19 -19 -19 -20 -20 -20 -22 -21 -22 -23 -23 -23 -24 -25 -25 -25 -26 -28
-15 -15 -15 -15 -15 -15 -15 -15 -15 -15 -15 -15 -15 -16 -16 -15 -15 -16 -18 -18 -18 -18 -18 -19 -19 -19 -20 -20 -20 -21 -21 -22 -23 -23 -23 -24 -24 -24 -25 -26 -26 -27 -29 -29
-15 -15 -15 -15 -15 -14 -15 -15 -15 -15 -15 -15 -16 -16 -16 -16 -17 -17 -17 -18 -18 -19 -19 -19 -19 -20 -20 -20 -21 -21 -21 -22 -22 -23 -24 -24 -25 -25 -26 -27 -29 -29 -29 -30
-16 -16 -15 -15 -15 -15 -15 -16 -15 -15 -15 -16 -16 -16 -17 -17 -17 -17 -18 -18 -18 -19 -19 -19 -20 -20 -20 -20 -21 -21 -22 -23 -23 -24 -24 -24 -25 -27 -28 -29 -30 -30 -30 -30
-16 -16 -15 -15 -15 -15 -15 -15 -15 -15 -16 -16 -17 -17 -17 -18 -18 -18 -18 -19 -19 -19 -19 -20 -20 -20 -20 -21 -22 -22 -23 -23 -23 -24 -25 -26 -27 -29 -29 -30 -30 -30 -30 -30
-16 -16 -16 -16 -16 -16 -16 -16 -15 -16 -16 -17 -17 -18 -18 -18 -18 -19 -19 -19 -19 -20 -20 -20 -20 -21 -21 -22 -23 -23 -23 -23 -24 -25 -26 -28 -29 -30 -30 -30 -30 -30 -30 -30
-16 -16 -16 -16 -16 -16 -16 -16 -16 -17 -18 -18 -18 -18 -18 -19 -19 -19 -20 -20 -20 -20 -20 -21 -21 -21 -22 -23 -23 -23 -24 -25 -26 -26 -28 -29 -30 -30 -30 -30 -30 -31 -31 -31
-16 -16 -16 -16 -17 -17 -17 -17 -17 -18 -18 -18 -18 -19 -19 -19 -20 -20 -20 -20 -20 -21 -21 -21 -22 -23 -23 -23 -24 -25 -25 -26 -27 -29 -30 -30 -30 -30 -30 -30 -30 -31 -31 -32
-17 -17 -17 -17 -17 -17 -18 -18 -18 -19 -19 -19 -19 -19 -20 -20 -20 -21 -21 -21 -21 -21 -22 -23 -23 -23 -24 -24 -25 -25 -26 -27 -28 -30 -30 -30 -31 -30 -31 -31 -31 -31 -32 -33
-17 -18 -17 -17 -17 -18 -18 -19 -19 -19 -19 -19 -20 -20 -20 -21 -21 -21 -21 -21 -22 -22 -23 -24 -24 -24 -25 -25 -26 -26 -27 -29 -30 -31 -31 -31 -31 -31 -31 -31 -31 -32 -32 -33
-18 -18 -18 -18 -18 -19 -19 -19 -19 -19 -20 -20 -20 -20 -21 -21 -21 -21 -22 -22 -23 -24 -24 -24 -24 -25 -26 -26 -27 -28 -29 -30 -31 -31 -31 -31 -31 -31 -31 -31 -32 -32 -33 -33
-18 -19 -19 -19 -20 -20 -20 -20 -20 -20 -21 -21 -21 -21 -21 -21 -22 -22 -23 -23 -24 -24 -24 -25 -25 -26 -26 -27 -29 -30 -31 -31 -31 -31 -31 -31 -31 -31 -32 -32 -32 -32 -34 -34
-19 -19 -20 -20 -20 -20 -20 -20 -21 -21 -21 -21 -21 -22 -22 -23 -23 -23 -24 -24 -25 -25 -25 -26 -27 -27 -28 -30 -31 -31 -31 -31 -31 -31 -31 -31 -31 -32 -33 -33 -33 -33 -34 -35
-20 -20 -20 -20 -20 -21 -21 -21 -21 -22 -22 -22 -22 -23 -23 -23 -24 -24 -25 -25 -25 -26 -26 -27 -28 -29 -30 -31 -31 -31 -31 -31 -31 -31 -31 -32 -32 -32 -33 -34 -34 -34 -34 -35
-20 -21 -21 -21 -21 -21 -22 -22 -22 -22 -22 -23 -23 -24 -24 -25 -25 -25 -25 -26 -26 -27 -28 -29 -30 -31 -31 -31 -31 -31 -31 -31 -31 -32 -32 -32 -32 -33 -33 -34 -34 -34 -35 -35
-21 -21 -21 -22 -22 -22 -22 -22 -22 -23 -23 -24 -24 -25 -25 -25 -26 -26 -26 -27 -28 -29 -30 -31 -31 -31 -31 -31 -31 -31 -31 -32 -32 -32 -32 -33 -33 -33 -34 -34 -34 -35 -35 -35
-22 -22 -22 -22 -22 -22 -23 -23 -24 -24 -24 -25 -25 -25 -26 -26 -27 -27 -28 -30 -31 -31 -32 -31 -31 -31 -31 -31 -31 -32 -32 -32 -32 -33 -33 -33 -33 -33 -33 -34 -34 -35 -35 -36
-22 -22 -22 -22 -23 -23 -24 -24 -25 -25 -25 -26 -26 -26 -27 -28 -29 -30 -31 -31 -32 -32 -32 -31 -31 -31 -31 -32 -32 -32 -32 -33 -33 -34 -34 -34 -34 -33 -33 -34 -35 -35 -36 -36
-22 -22 -23 -23 -24 -25 -25 -25 -25 -26 -26 -27 -27 -28 -28 -30 -31 -32 -32 -32 -32 -32 -32 -32 -32 -32 -32 -32 -33 -33 -33 -33 -34 -34 -34 -34 -34 -33 -34 -34 -35 -36 -36 -37
-24 -24 -24 -25 -25 -25 -26 -26 -26 -27 -28 -29 -30 -30 -31 -32 -32 -32 -32 -32 -32 -32 -32 -32 -32 -32 -32 -33 -33 -34 -34 -34 -35 -35 -35 -34 -34 -34 -35 -35 -36 -36 -37 -37
-25 -25 -26 -26 -26 -26 -27 -27 -28 -29 -30 -31 -32 -32 -32 -32 -32 -32 -32 -32 -32 -32 -32 -33 -33 -33 -33 -34 -34 -35 -35 -35 -35 -35 -35 -34 -35 -36 -36 -37 -37 -37 -38 -38

GFSNGP_500_temp_030.txt.gz
Temp
-16 -16 -16 -16 -16 -16 -16 -16 -16 -16 -15 -16 -16 -15 -15 -15 -14 -14 -14 -14 -14 -14 -14 -14 -14 -15 -15 -16 -17 -17 -17 -18 -18 -18 -19 -19 -20 -19 -19 -19 -20 -20 -21 -21
-16 -16 -16 -16 -16 -15 -16 -17 -16 -16 -16 -16 -16 -15 -15 -15 -15 -15 -15 -15 -14 -14 -15 -15 -16 -16 -16 -17 -17 -18 -17 -18 -18 -19 -19 -19 -19 -19 -19 -20 -20 -21 -22 -22
-16 -16 -15 -15 -15 -16 -16 -17 -16 -16 -16 -16 -16 -16 -15 -16 -16 -16 -16 -16 -16 -16 -16 -16 -16 -16 -16 -17 -17 -18 -18 -18 -19 -19 -19 -19 -20 -20 -20 -20 -22 -23 -23 -24
-16 -16 -15 -15 -16 -15 -16 -16 -16 -16 -16 -16 -16 -16 -16 -16 -16 -16 -16 -16 -16 -16 -16 -16 -16 -17 -17 -17 -19 -19 -19 -19 -19 -20 -20 -20 -20 -20 -21 -22 -22 -23 -24 -24
-16 -16 -16 -16 -16 -16 -16 -16 -16 -16 -16 -16 -16 -16 -16 -15 -15 -16 -16 -16 -16 -16 -16 -16 -17 -17 -18 -19 -19 -19 -19 -20 -20 -20 -20 -20 -20 -21 -21 -22 -23 -23 -24 -25
-16 -16 -16 -16 -16 -16 -16 -16 -16 -16 -16 -16 -16 -15 -15 -15 -15 -16 -16 -16 -16 -16 -16 -16 -17 -18 -18 -19 -19 -20 -20 -20 -20 -21 -21 -21 -20 -22 -24 -24 -24 -24 -25 -26
-16 -16 -16 -16 -16 -16 -16 -16 -16 -16 -16 -16 -16 -15 -15 -15 -15 -16 -16 -16 -16 -16 -17 -17 -18 -18 -19 -19 -19 -20 -20 -21 -21 -21 -21 -22 -24 -23 -24 -24 -25 -25 -26 -28
-16 -16 -16 -16 -16 -16 -16 -15 -16 -16 -16 -15 -15 -15 -15 -15 -15 -15 -16 -16 -17 -17 -18 -18 -18 -19 -19 -20 -20 -20 -20 -21 -21 -21 -22 -23 -23 -24 -24 -25 -25 -26 -28 -29
-16 -16 -16 -15 -15 -15 -16 -16 -16 -15 -15 -15 -15 -15 -15 -15 -16 -16 -16 -17 -17 -18 -18 -18 -19 -19 -20 -20 -20 -20 -21 -21 -21 -22 -23 -24 -24 -24 -24 -25 -26 -28 -29 -30
-16 -16 -15 -15 -16 -16 -16 -16 -15 -15 -15 -15 -16 -16 -16 -16 -16 -17 -17 -18 -18 -18 -18 -19 -19 -20 -20 -20 -20 -21 -21 -21 -22 -23 -24 -24 -24 -24 -25 -26 -28 -29 -30 -30
-16 -16 -16 -16 -16 -16 -15 -15 -15 -15 -15 -16 -16 -16 -16 -17 -17 -18 -18 -18 -18 -19 -19 -19 -20 -20 -20 -20 -21 -21 -21 -22 -23 -23 -24 -24 -25 -26 -26 -28 -29 -30 -30 -31
-16 -16 -16 -16 -16 -16 -16 -15 -15 -16 -16 -16 -16 -16 -17 -17 -18 -18 -18 -19 -19 -20 -20 -20 -20 -20 -21 -21 -21 -22 -22 -23 -24 -24 -24 -25 -26 -27 -28 -29 -30 -31 -31 -31
-17 -16 -16 -17 -17 -17 -16 -16 -16 -16 -17 -17 -17 -17 -18 -18 -19 -19 -19 -19 -20 -20 -21 -21 -21 -21 -21 -21 -22 -23 -23 -24 -24 -24 -25 -26 -27 -28 -29 -30 -31 -31 -31 -31
-17 -17 -17 -17 -17 -17 -17 -17 -17 -17 -17 -18 -18 -18 -19 -19 -19 -19 -20 -20 -20 -21 -21 -21 -21 -21 -22 -22 -23 -24 -24 -24 -25 -25 -26 -27 -28 -29 -30 -31 -31 -31 -31 -31
-17 -17 -17 -17 -17 -17 -17 -17 -17 -18 -18 -18 -19 -19 -19 -20 -20 -20 -20 -21 -21 -21 -21 -21 -22 -22 -23 -23 -24 -24 -24 -25 -25 -26 -27 -28 -30 -30 -31 -31 -31 -31 -31 -31
-17 -17 -17 -17 -17 -18 -18 -18 -18 -19 -19 -19 -19 -20 -20 -20 -20 -21 -21 -22 -22 -21 -22 -22 -23 -23 -24 -24 -25 -25 -25 -26 -27 -28 -29 -30 -31 -31 -31 -31 -31 -31 -31 -32
-18 -18 -18 -18 -18 -18 -18 -19 -19 -19 -20 -20 -20 -20 -20 -21 -21 -22 -22 -22 -22 -22 -22 -23 -24 -24 -25 -25 -25 -26 -26 -27 -28 -29 -31 -31 -31 -31 -31 -31 -31 -32 -32 -32
-19 -19 -19 -19 -19 -19 -19 -19 -20 -20 -20 -20 -21 -21 -22 -22 -22 -22 -22 -22 -23 -23 -24 -24 -25 -25 -25 -26 -26 -27 -28 -29 -30 -31 -31 -31 -31 -31 -31 -32 -32 -32 -32 -33
-19 -19 -19 -19 -20 -20 -20 -20 -20 -21 -21 -21 -21 -22 -22 -22 -23 -23 -23 -24 -24 -24 -25 -25 -26 -26 -27 -27 -28 -29 -31 -31 -31 -31 -31 -31 -31 -32 -32 -32 -33 -33 -33 -33
-19 -20 -20 -20 -20 -21 -21 -21 -21 -21 -21 -22 -22 -22 -23 -23 -23 -24 -24 -25 -25 -25 -26 -26 -26 -27 -28 -29 -30 -31 -32 -31 -31 -31 -31 -32 -32 -32 -32 -33 -33 -33 -33 -34
-20 -20 -21 -21 -21 -21 -21 -21 -22 -22 -22 -22 -22 -22 -22 -23 -24 -25 -25 -25 -26 -26 -26 -27 -28 -29 -30 -31 -32 -32 -32 -32 -31 -32 -32 -32 -32 -33 -33 -34 -34 -34 -34 -34
-21 -21 -21 -21 -21 -21 -22 -22 -22 -22 -23 -23 -22 -23 -24 -25 -25 -26 -26 -26 -27 -27 -28 -29 -30 -31 -32 -32 -32 -32 -32 -32 -32 -32 -32 -33 -33 -33 -34 -34 -34 -35 -34 -34
-20 -21 -21 -21 -22 -22 -22 -22 -23 -23 -23 -23 -24 -25 -25 -26 -26 -26 -27 -27 -28 -30 -31 -31 -32 -32 -32 -32 -32 -32 -32 -33 -33 -33 -33 -34 -34 -34 -34 -34 -35 -35 -34 -34
-21 -21 -22 -22 -22 -22 -22 -23 -23 -23 -25 -25 -25 -26 -26 -27 -27 -28 -29 -30 -31 -32 -32 -32 -32 -32 -32 -32 -33 -33 -33 -33 -33 -34 -34 -34 -35 -35 -35 -35 -35 -34 -34 -35
-22 -22 -22 -23 -23 -23 -23 -23 -24 -25 -26 -26 -26 -27 -28 -29 -30 -31 -31 -32 -32 -32 -32 -32 -32 -32 -33 -33 -33 -33 -33 -34 -34 -34 -35 -35 -35 -35 -35 -35 -35 -35 -36 -36
-23 -23 -23 -23 -23 -24 -25 -26 -26 -26 -27 -27 -28 -29 -30 -31 -32 -32 -32 -32 -32 -32 -32 -33 -33 -33 -33 -34 -34 -35 -35 -35 -35 -35 -35 -36 -36 -36 -35 -36 -36 -37 -38 -38
-23 -24 -25 -25 -26 -26 -26 -26 -26 -27 -28 -29 -30 -31 -32 -32 -32 -33 -33 -33 -33 -33 -33 -33 -33 -33 -33 -35 -35 -35 -35 -35 -35 -36 -36 -36 -36 -36 -36 -36 -37 -38 -39 -40

GFSNGP_500_temp_033.txt.gz
Temp
-16 -17 -17 -16 -16 -16 -16 -16 -16 -15 -15 -16 -16 -16 -15 -15 -15 -15 -15 -15 -15 -15 -15 -15 -15 -15 -15 -16 -17 -17 -17 -17 -18 -18 -18 -19 -19 -19 -19 -20 -20 -20 -20 -21
-16 -16 -16 -16 -16 -17 -16 -16 -16 -16 -16 -16 -16 -16 -16 -16 -16 -16 -16 -15 -15 -15 -15 -15 -15 -14 -15 -16 -16 -16 -16 -17 -18 -18 -19 -19 -19 -19 -19 -19 -20 -20 -21 -21
-16 -16 -16 -15 -15 -16 -16 -16 -16 -16 -16 -16 -16 -16 -16 -16 -16 -16 -15 -15 -15 -15 -15 -15 -15 -15 -15 -16 -16 -17 -17 -17 -18 -19 -19 -19 -20 -20 -20 -20 -20 -21 -22 -22
-16 -16 -15 -15 -16 -16 -16 -15 -16 -16 -16 -16 -16 -16 -16 -16 -16 -16 -16 -16 -15 -15 -15 -15 -15 -15 -16 -16 -17 -17 -17 -18 -19 -19 -19 -20 -20 -20 -20 -21 -22 -22 -22 -23
-16 -16 -16 -16 -16 -16 -16 -16 -16 -16 -16 -16 -16 -16 -16 -16 -16 -16 -15 -15 -15 -15 -15 -15 -15 -16 -16 -17 -17 -17 -18 -19 -19 -20 -20 -20 -20 -20 -20 -22 -22 -22 -23 -24
-15 -16 -15 -16 -17 -16 -16 -16 -16 -16 -17 -17 -16 -16 -16 -16 -15 -15 -15 -15 -15 -15 -15 -16 -16 -17 -17 -17 -18 -18 -19 -19 -20 -20 -20 -21 -21 -21 -22 -22 -23 -23 -24 -25
-16 -15 -15 -16 -17 -17 -16 -16 -17 -17 -16 -16 -16 -16 -15 -16 -16 -16 -15 -15 -15 -15 -16 -16 -17 -17 -18 -18 -18 -19 -19 -20 -20 -21 -21 -21 -21 -21 -22 -23 -24 -24 -25 -25
-16 -16 -15 -16 -17 -16 -17 -17 -17 -17 -17 -16 -16 -16 -16 -16 -16 -16 -16 -16 -16 -16 -17 -17 -17 -18 -18 -18 -19 -19 -20 -20 -21 -21 -21 -21 -21 -22 -23 -24 -24 -25 -25 -25
-16 -16 -16 -16 -16 -16 -17 -17 -17 -16 -16 -16 -16 -16 -16 -16 -16 -16 -16 -16 -16 -17 -17 -18 -18 -18 -18 -19 -19 -20 -21 -21 -21 -21 -21 -21 -22 -23 -24 -24 -24 -25 -26 -27
-16 -16 -16 -16 -16 -17 -17 -17 -17 -16 -16 -16 -16 -16 -16 -16 -16 -16 -17 -17 -17 -18 -18 -18 -19 -19 -19 -20 -20 -21 -21 -21 -21 -21 -22 -22 -23 -24 -24 -25 -25 -26 -27 -28
-16 -16 -16 -16 -16 -16 -17 -17 -17 -17 -16 -16 -16 -16 -16 -17 -17 -17 -17 -17 -18 -18 -19 -19 -19 -19 -20 -21 -21 -21 -21 -21 -21 -22 -22 -23 -24 -24 -25 -25 -26 -27 -28 -29
-17 -17 -17 -17 -16 -16 -16 -16 -16 -16 -16 -16 -16 -17 -17 -17 -17 -17 -18 -18 -19 -19 -19 -19 -20 -20 -21 -21 -21 -21 -21 -21 -22 -23 -24 -24 -25 -25 -26 -26 -27 -28 -30 -31
-17 -17 -17 -17 -17 -16 -16 -16 -17 -16 -17 -17 -17 -17 -17 -17 -18 -18 -18 -19 -19 -19 -20 -20 -20 -21 -21 -21 -22 -21 -22 -23 -23 -24 -25 -25 -26 -26 -26 -27 -29 -30 -31 -31
-17 -17 -17 -17 -17 -17 -17 -17 -17 -17 -17 -17 -17 -17 -18 -18 -18 -19 -19 -19 -20 -20 -20 -21 -21 -22 -22 -22 -22 -22 -23 -24 -25 -25 -25 -26 -26 -26 -27 -29 -30 -31 -31 -31
-18 -18 -18 -18 -17 -17 -17 -17 -17 -17 -17 -18 -18 -18 -18 -19 -19 -19 -20 -20 -20 -21 -21 -22 -22 -22 -22 -22 -23 -23 -24 -25 -25 -25 -26 -26 -27 -29 -30 -31 -31 -31 -31 -31
-18 -18 -18 -18 -18 -18 -18 -18 -18 -18 -18 -18 -19 -19 -19 -20 -20 -20 -20 -21 -21 -22 -22 -22 -22 -22 -22 -23 -24 -25 -25 -25 -26 -26 -27 -28 -30 -31 -32 -31 -31 -31 -31 -32
-18 -18 -18 -18 -18 -18 -18 -18 -18 -19 -19 -19 -20 -20 -20 -20 -21 -21 -21 -22 -22 -23 -23 -23 -23 -23 -24 -24 -25 -25 -26 -26 -27 -28 -29 -30 -31 -32 -31 -31 -31 -31 -32 -32
-19 -19 -19 -19 -19 -19 -19 -19 -19 -19 -20 -20 -20 -20 -21 -21 -21 -22 -22 -23 -23 -23 -23 -23 -23 -24 -25 -25 -26 -26 -27 -27 -28 -30 -31 -32 -32 -32 -31 -32 -32 -32 -32 -33
-19 -19 -19 -20 -19 -19 -19 -20 -20 -20 -20 -20 -21 -21 -21 -22 -22 -23 -23 -23 -23 -23 -23 -24 -25 -25 -26 -26 -27 -27 -28 -29 -31 -32 -32 -32 -32 -32 -32 -32 -32 -33 -33 -34
-19 -19 -19 -20 -20 -20 -20 -20 -20 -21 -21 -21 -21 -21 -22 -22 -23 -23 -23 -23 -23 -24 -25 -25 -26 -26 -27 -27 -28 -30 -31 -32 -32 -32 -32 -32 -32 -32 -32 -33 -33 -34 -34 -34
-19 -20 -20 -20 -20 -20 -20 -21 -21 -21 -21 -21 -22 -22 -22 -23 -23 -23 -23 -23 -25 -26 -26 -26 -27 -27 -28 -30 -31 -31 -32 -32 -32 -32 -32 -32 -33 -33 -33 -34 -34 -34 -34 -35
-20 -20 -20 -20 -20 -21 -21 -21 -21 -21 -22 -22 -22 -23 -23 -23 -23 -23 -24 -25 -26 -26 -27 -27 -28 -29 -31 -31 -32 -32 -32 -32 -32 -32 -32 -32 -34 -34 -34 -34 -34 -35 -35 -35
-20 -21 -21 -21 -21 -21 -21 -21 -22 -22 -22 -23 -23 -23 -23 -24 -24 -25 -26 -27 -27 -28 -29 -29 -30 -31 -32 -32 -32 -32 -32 -33 -32 -32 -33 -34 -35 -35 -35 -35 -35 -35 -35 -35
-21 -21 -21 -21 -21 -21 -22 -22 -22 -23 -23 -23 -23 -24 -24 -25 -26 -27 -27 -28 -29 -30 -31 -31 -32 -32 -32 -32 -33 -33 -33 -32 -33 -33 -34 -35 -35 -35 -35 -35 -36 -35 -36 -36
-21 -21 -21 -22 -22 -22 -23 -23 -23 -24 -24 -24 -25 -26 -27 -27 -28 -28 -29 -30 -31 -32 -32 -32 -33 -33 -33 -33 -33 -33 -33 -33 -33 -33 -35 -35 -35 -35 -36 -36 -36 -36 -37 -36
-22 -22 -22 -23 -23 -23 -24 -24 -24 -25 -26 -27 -27 -28 -28 -29 -29 -30 -31 -32 -32 -33 -33 -33 -33 -33 -33 -33 -33 -33 -33 -33 -34 -34 -35 -36 -36 -36 -36 -36 -36 -37 -37 -37
-23 -24 -24 -24 -24 -25 -26 -26 -27 -27 -27 -28 -28 -29 -29 -30 -31 -32 -33 -33 -33 -33 -33 -33 -33 -33 -34 -33 -33 -33 -34 -34 -34 -35 -36 -36 -36 -36 -37 -36 -37 -37 -37 -37

GFSNGP_500_temp_036.txt.gz
Temp
-17 -18 -17 -16 -16 -17 -16 -16 -16 -16 -15 -15 -16 -16 -16 -16 -16 -16 -16 -16 -16 -16 -16 -16 -16 -16 -15 -15 -15 -16 -16 -16 -17 -17 -17 -17 -17 -17 -18 -19 -20 -20 -20 -21
-17 -17 -17 -16 -16 -16 -16 -16 -15 -15 -15 -16 -16 -16 -16 -17 -16 -16 -16 -16 -16 -16 -15 -15 -15 -15 -15 -15 -15 -15 -15 -16 -16 -17 -17 -17 -18 -19 -20 -20 -20 -20 -21 -21
-17 -17 -17 -15 -15 -16 -16 -16 -15 -15 -15 -16 -16 -16 -17 -17 -17 -16 -16 -16 -16 -16 -15 -15 -15 -15 -15 -15 -15 -15 -16 -16 -17 -17 -18 -18 -19 -20 -20 -20 -20 -20 -21 -21
-17 -17 -16 -15 -15 -15 -15 -15 -15 -15 -15 -16 -16 -16 -17 -17 -16 -16 -16 -16 -16 -15 -15 -15 -15 -15 -15 -15 -15 -16 -16 -17 -17 -18 -18 -19 -19 -20 -20 -21 -21 -20 -21 -21
-17 -16 -15 -15 -15 -16 -15 -15 -15 -15 -15 -16 -16 -16 -16 -16 -16 -16 -16 -16 -16 -16 -16 -16 -16 -15 -15 -16 -16 -16 -17 -18 -18 -18 -19 -19 -20 -21 -21 -21 -21 -21 -21 -22
-17 -16 -15 -15 -15 -16 -16 -15 -16 -16 -16 -16 -17 -17 -16 -16 -16 -16 -16 -16 -16 -16 -16 -15 -16 -16 -16 -16 -17 -17 -18 -18 -18 -19 -19 -20 -21 -21 -21 -21 -21 -21 -22 -23
-17 -16 -15 -15 -16 -16 -16 -16 -16 -16 -16 -16 -17 -17 -16 -16 -16 -16 -16 -16 -16 -16 -16 -16 -16 -17 -17 -17 -17 -18 -18 -19 -19 -19 -20 -21 -21 -21 -21 -21 -21 -22 -23 -24
-17 -16 -16 -16 -16 -16 -16 -16 -16 -16 -16 -16 -16 -16 -16 -16 -16 -16 -16 -16 -16 -16 -16 -16 -17 -17 -17 -17 -18 -18 -19 -19 -19 -20 -21 -21 -21 -21 -21 -21 -22 -23 -24 -25
-17 -17 -16 -16 -16 -16 -16 -16 -16 -16 -16 -16 -16 -16 -16 -16 -16 -16 -16 -16 -16 -16 -17 -17 -17 -17 -18 -18 -19 -19 -19 -20 -20 -21 -21 -21 -21 -21 -22 -22 -23 -24 -25 -25
-17 -17 -17 -16 -17 -16 -16 -16 -16 -17 -17 -17 -17 -17 -17 -17 -17 -17 -17 -17 -17 -17 -17 -17 -18 -18 -18 -18 -19 -19 -20 -20 -21 -21 -21 -21 -21 -22 -22 -24 -24 -25 -25 -26
-17 -17 -17 -17 -17 -17 -17 -17 -17 -17 -17 -17 -17 -17 -17 -17 -17 -17 -17 -17 -17 -17 -18 -18 -18 -18 -19 -19 -20 -20 -21 -21 -21 -22 -22 -22 -22 -23 -23 -24 -25 -25 -26 -26
-17 -18 -18 -17 -17 -17 -17 -17 -17 -17 -17 -17 -17 -17 -17 -17 -17 -17 -17 -17 -18 -18 -18 -18 -19 -19 -20 -20 -20 -21 -21 -22 -22 -22 -22 -22 -23 -24 -25 -25 -26 -27 -27 -29
-18 -18 -18 -18 -17 -17 -17 -17 -17 -17 -17 -17 -17 -17 -17 -17 -17 -17 -18 -18 -18 -18 -19 -19 -19 -20 -20 -21 -21 -22 -22 -22 -22 -22 -23 -24 -25 -25 -25 -26 -26 -27 -29 -30
-18 -18 -18 -18 -18 -18 -18 -18 -17 -17 -17 -17 -17 -17 -17 -18 -18 -18 -18 -19 -19 -19 -20 -20 -20 -21 -21 -22 -22 -22 -22 -23 -23 -23 -24 -25 -25 -26 -26 -26 -26 -27 -30 -31
-18 -18 -18 -18 -18 -18 -18 -18 -18 -18 -18 -18 -18 -18 -18 -19 -19 -19 -19 -19 -20 -20 -21 -21 -21 -21 -22 -23 -23 -23 -23 -23 -24 -25 -25 -26 -26 -26 -27 -28 -29 -30 -31 -31
-18 -18 -18 -18 -18 -18 -18 -18 -18 -18 -18 -19 -19 -19 -19 -19 -19 -20 -20 -20 -21 -21 -21 -21 -22 -23 -23 -23 -23 -23 -24 -25 -25 -26 -26 -26 -27 -28 -29 -30 -31 -31 -31 -31
-18 -18 -18 -18 -18 -18 -19 -19 -19 -19 -19 -19 -19 -19 -20 -20 -20 -20 -21 -21 -21 -21 -21 -22 -23 -23 -23 -23 -23 -24 -25 -26 -26 -26 -27 -28 -29 -30 -31 -31 -31 -31 -31 -31
-18 -18 -18 -18 -19 -19 -19 -19 -19 -19 -19 -19 -20 -20 -20 -20 -21 -21 -21 -21 -21 -22 -22 -23 -23 -23 -24 -24 -24 -25 -26 -27 -27 -27 -28 -29 -30 -31 -31 -31 -31 -31 -32 -33
-18 -18 -18 -18 -19 -19 -19 -19 -19 -19 -20 -20 -20 -20 -21 -21 -21 -21 -21 -22 -22 -23 -23 -23 -24 -24 -24 -25 -26 -27 -27 -27 -28 -29 -30 -31 -31 -31 -32 -31 -32 -32 -33 -34
-19 -19 -19 -19 -19 -19 -19 -19 -18 -19 -20 -20 -21 -21 -21 -21 -21 -22 -22 -22 -23 -23 -23 -24 -24 -25 -26 -27 -27 -28 -28 -29 -30 -31 -31 -31 -32 -32 -32 -32 -32 -33 -34 -34
-19 -19 -19 -19 -19 -19 -19 -19 -19 -20 -20 -21 -21 -21 -21 -22 -22 -22 -23 -23 -23 -24 -24 -24 -25 -26 -27 -28 -28 -29 -30 -31 -31 -32 -32 -32 -32 -32 -32 -33 -32 -33 -34 -34
-19 -19 -19 -20 -19 -19 -20 -20 -20 -21 -21 -21 -21 -21 -22 -22 -23 -23 -23 -24 -24 -25 -25 -26 -27 -28 -28 -29 -30 -31 -31 -31 -32 -32 -33 -33 -33 -33 -33 -33 -33 -34 -35 -35
-20 -20 -20 -20 -20 -20 -21 -21 -21 -21 -21 -21 -22 -22 -23 -23 -23 -24 -24 -25 -25 -26 -27 -28 -28 -29 -30 -31 -31 -32 -32 -32 -33 -33 -33 -33 -33 -33 -34 -34 -34 -35 -35 -35
-20 -20 -20 -20 -20 -21 -22 -22 -22 -22 -22 -22 -23 -23 -24 -24 -24 -25 -26 -27 -28 -28 -28 -29 -30 -30 -31 -32 -32 -32 -33 -33 -33 -33 -33 -33 -33 -34 -34 -34 -35 -36 -36 -36
-20 -20 -21 -21 -22 -22 -22 -22 -22 -23 -23 -24 -24 -25 -25 -25 -26 -27 -28 -28 -28 -29 -30 -31 -31 -32 -32 -33 -33 -33 -34 -34 -33 -33 -33 -33 -34 -35 -35 -35 -36 -36 -37 -37
-22 -22 -22 -22 -22 -22 -23 -23 -24 -24 -25 -25 -25 -26 -27 -28 -28 -28 -29 -29 -30 -31 -31 -32 -32 -33 -33 -34 -34 -34 -34 -34 -34 -34 -34 -34 -35 -35 -35 -36 -37 -37 -37 -37
-22 -22 -22 -23 -23 -24 -24 -25 -25 -25 -26 -27 -28 -28 -28 -29 -30 -30 -31 -32 -32 -32 -32 -33 -33 -34 -34 -34 -34 -34 -34 -34 -34 -34 -34 -35 -35 -36 -36 -37 -37 -37 -37 -38

GFSNGP_500_temp_042.txt.gz
Temp
-16 -17 -17 -17 -17 -17 -17 -16 -16 -16 -16 -16 -16 -16 -16 -16 -16 -16 -16 -15 -16 -16 -16 -17 -17 -17 -17 -17 -16 -16 -16 -16 -16 -16 -16 -16 -16 -16 -17 -17 -17 -17 -18 -18
-16 -16 -17 -17 -16 -17 -17 -16 -16 -16 -15 -16 -16 -16 -16 -16 -16 -16 -16 -16 -16 -17 -17 -17 -17 -16 -17 -17 -17 -17 -17 -16 -16 -16 -16 -16 -16 -16 -16 -17 -17 -17 -18 -19
-16 -16 -17 -15 -16 -17 -17 -17 -16 -15 -16 -16 -16 -16 -15 -16 -16 -16 -16 -16 -16 -17 -17 -17 -17 -17 -17 -17 -16 -16 -16 -16 -16 -16 -16 -16 -16 -16 -17 -17 -17 -18 -18 -19
-17 -17 -16 -16 -16 -17 -17 -16 -16 -16 -16 -16 -16 -16 -16 -16 -16 -16 -16 -16 -17 -17 -17 -17 -17 -17 -17 -17 -17 -16 -16 -16 -16 -16 -16 -16 -16 -17 -17 -17 -18 -18 -19 -19
-17 -16 -15 -15 -16 -17 -17 -16 -16 -17 -16 -15 -15 -15 -15 -16 -16 -16 -16 -16 -17 -17 -17 -17 -17 -17 -17 -16 -16 -16 -16 -16 -16 -16 -17 -17 -17 -17 -17 -18 -18 -19 -20 -20
-17 -17 -15 -15 -16 -17 -17 -15 -18 -16 -15 -15 -15 -15 -16 -16 -16 -16 -16 -17 -17 -17 -17 -17 -17 -16 -16 -16 -16 -16 -16 -16 -17 -17 -17 -17 -17 -18 -18 -19 -19 -20 -20 -21
-18 -16 -15 -15 -16 -17 -17 -16 -16 -16 -15 -15 -15 -15 -15 -16 -16 -17 -17 -17 -17 -17 -17 -17 -16 -16 -16 -16 -16 -16 -17 -17 -17 -17 -18 -18 -18 -18 -19 -19 -20 -20 -21 -21
-18 -17 -15 -16 -16 -17 -17 -17 -16 -16 -15 -15 -15 -15 -16 -16 -16 -17 -17 -17 -17 -17 -16 -16 -17 -16 -16 -16 -17 -17 -17 -17 -17 -18 -18 -18 -19 -19 -19 -20 -20 -21 -21 -22
-17 -17 -17 -17 -17 -17 -17 -17 -17 -16 -16 -16 -16 -16 -16 -16 -16 -17 -17 -17 -17 -17 -17 -17 -17 -17 -17 -17 -17 -17 -17 -18 -18 -18 -19 -19 -19 -20 -20 -20 -20 -21 -21 -22
-17 -17 -17 -17 -17 -17 -17 -17 -17 -16 -16 -16 -16 -16 -16 -16 -16 -17 -17 -17 -17 -17 -17 -17 -17 -17 -17 -17 -18 -18 -18 -18 -18 -19 -19 -20 -20 -20 -20 -20 -21 -21 -22 -22
-17 -17 -17 -18 -18 -18 -17 -17 -16 -16 -17 -17 -17 -17 -17 -17 -17 -17 -17 -17 -17 -17 -17 -17 -18 -18 -18 -18 -18 -18 -18 -18 -19 -19 -20 -20 -20 -20 -20 -21 -21 -22 -22 -23
-16 -18 -17 -18 -18 -18 -17 -17 -17 -17 -17 -17 -17 -17 -17 -17 -17 -17 -17 -17 -18 -18 -18 -18 -18 -18 -18 -18 -18 -19 -19 -19 -19 -20 -20 -20 -20 -20 -21 -22 -22 -23 -23 -23
-17 -18 -17 -17 -17 -17 -17 -17 -17 -17 -17 -17 -17 -17 -17 -17 -17 -18 -18 -18 -18 -18 -18 -18 -18 -19 -19 -19 -19 -19 -19 -19 -20 -20 -20 -20 -20 -21 -22 -22 -23 -24 -24 -25
-18 -18 -17 -17 -17 -17 -17 -17 -17 -17 -18 -18 -18 -18 -18 -18 -18 -18 -18 -18 -18 -18 -18 -19 -19 -19 -19 -19 -20 -20 -20 -20 -20 -20 -20 -21 -21 -22 -23 -23 -24 -25 -25 -26
-19 -18 -17 -18 -18 -17 -17 -17 -18 -18 -18 -18 -18 -18 -18 -18 -18 -18 -18 -19 -19 -19 -19 -19 -19 -19 -20 -20 -20 -20 -20 -21 -21 -21 -21 -22 -22 -23 -23 -24 -25 -25 -26 -27
-19 -18 -17 -17 -17 -17 -17 -17 -17 -18 -18 -18 -18 -18 -18 -18 -18 -18 -19 -19 -19 -18 -19 -19 -20 -20 -20 -20 -20 -21 -21 -21 -21 -21 -22 -23 -23 -24 -25 -25 -26 -27 -27 -28
-19 -18 -18 -18 -17 -17 -17 -17 -17 -18 -18 -18 -18 -18 -18 -18 -19 -19 -19 -19 -19 -19 -19 -20 -20 -20 -20 -21 -21 -21 -21 -22 -22 -23 -23 -24 -24 -25 -26 -26 -27 -28 -29 -30
-18 -18 -18 -18 -18 -18 -18 -18 -18 -19 -18 -18 -18 -18 -19 -19 -18 -19 -19 -19 -19 -19 -20 -20 -20 -21 -21 -21 -22 -22 -22 -23 -23 -24 -25 -25 -26 -26 -27 -28 -29 -30 -31 -31
-17 -17 -18 -18 -18 -18 -18 -18 -18 -18 -18 -18 -18 -18 -19 -18 -18 -19 -20 -19 -20 -20 -20 -20 -21 -21 -22 -22 -22 -23 -24 -24 -25 -25 -26 -26 -27 -28 -29 -30 -31 -31 -31 -32
-18 -18 -18 -18 -18 -17 -18 -18 -18 -18 -18 -18 -19 -18 -19 -20 -20 -20 -20 -20 -20 -20 -21 -21 -22 -22 -22 -23 -23 -24 -24 -25 -26 -26 -27 -28 -29 -30 -31 -31 -31 -32 -32 -33
-18 -18 -18 -18 -18 -18 -18 -18 -18 -19 -19 -20 -19 -19 -20 -20 -20 -20 -20 -20 -21 -21 -21 -22 -22 -23 -23 -23 -24 -25 -25 -26 -27 -28 -29 -30 -31 -31 -32 -32 -32 -33 -33 -33
-18 -18 -18 -18 -18 -18 -19 -19 -19 -20 -20 -20 -20 -20 -20 -20 -21 -21 -21 -21 -21 -22 -22 -22 -23 -23 -24 -24 -25 -26 -27 -28 -29 -30 -31 -31 -32 -32 -32 -33 -33 -33 -34 -34
-18 -19 -19 -19 -19 -20 -20 -20 -20 -20 -20 -20 -20 -20 -20 -20 -21 -21 -22 -22 -22 -23 -23 -23 -24 -24 -25 -26 -27 -28 -29 -30 -31 -32 -32 -32 -32 -33 -33 -33 -34 -34 -34 -35
-20 -20 -20 -20 -20 -20 -20 -20 -20 -20 -20 -20 -21 -21 -21 -21 -22 -22 -22 -23 -24 -24 -24 -25 -26 -26 -27 -28 -29 -30 -31 -32 -32 -32 -32 -33 -33 -33 -34 -34 -34 -35 -35 -35
-20 -20 -21 -21 -21 -20 -20 -20 -20 -21 -21 -21 -22 -22 -22 -22 -23 -23 -24 -25 -25 -26 -26 -27 -27 -28 -29 -30 -31 -32 -32 -32 -32 -33 -33 -34 -34 -34 -35 -35 -35 -35 -36 -36
-21 -21 -20 -20 -21 -21 -21 -21 -21 -22 -22 -22 -23 -23 -24 -24 -25 -25 -26 -26 -27 -27 -28 -29 -29 -30 -31 -31 -32 -32 -32 -33 -33 -34 -34 -35 -35 -35 -36 -36 -36 -36 -36 -37
-21 -21 -22 -22 -22 -22 -22 -22 -23 -23 -24 -24 -25 -25 -26 -26 -26 -27 -28 -28 -29 -30 -30 -31 -31 -32 -32 -32 -32 -33 -33 -34 -34 -35 -36 -36 -36 -37 -37 -37 -37 -37 -37 -38

GFSNGP_500_temp_045.txt.gz
Temp
-15 -17 -16 -17 -17 -18 -17 -17 -17 -17 -17 -17 -16 -17 -17 -17 -16 -16 -16 -16 -16 -16 -16 -16 -16 -17 -17 -17 -17 -17 -17 -17 -17 -17 -16 -16 -16 -16 -16 -16 -16 -16 -16 -17
-16 -18 -17 -17 -17 -17 -17 -17 -17 -17 -17 -17 -17 -16 -16 -16 -16 -16 -16 -16 -16 -16 -16 -16 -16 -17 -17 -17 -17 -17 -17 -17 -17 -17 -17 -16 -16 -16 -16 -16 -16 -17 -17 -17
-15 -17 -18 -18 -15 -17 -17 -17 -17 -17 -16 -18 -17 -16 -15 -15 -15 -15 -16 -16 -16 -16 -16 -16 -17 -17 -17 -17 -17 -17 -17 -17 -17 -16 -16 -16 -16 -16 -16 -16 -17 -17 -17 -17
-15 -16 -15 -14 -16 -16 -16 -16 -17 -17 -16 -16 -16 -15 -15 -15 -15 -15 -15 -16 -16 -16 -16 -17 -17 -18 -18 -17 -17 -17 -17 -17 -16 -16 -16 -16 -16 -16 -17 -17 -17 -18 -18 -18
-16 -15 -15 -15 -16 -16 -16 -15 -16 -16 -16 -16 -16 -15 -15 -15 -15 -15 -15 -16 -16 -16 -17 -17 -17 -17 -17 -17 -17 -17 -17 -17 -16 -16 -16 -16 -17 -17 -17 -17 -18 -18 -18 -19
-17 -16 -15 -15 -16 -16 -17 -15 -16 -17 -16 -16 -15 -15 -15 -15 -15 -15 -15 -16 -16 -16 -17 -17 -17 -17 -17 -17 -17 -17 -17 -17 -17 -17 -17 -17 -17 -17 -17 -18 -18 -18 -19 -19
-17 -17 -15 -15 -16 -17 -16 -16 -17 -17 -17 -16 -15 -15 -15 -15 -15 -15 -15 -16 -16 -16 -17 -17 -17 -17 -17 -17 -17 -17 -17 -17 -17 -17 -17 -17 -17 -18 -18 -18 -18 -19 -19 -19
-18 -17 -16 -16 -16 -16 -17 -17 -17 -17 -17 -16 -16 -15 -15 -15 -15 -15 -15 -16 -16 -17 -17 -17 -17 -17 -17 -17 -17 -17 -17 -17 -17 -17 -17 -18 -18 -18 -18 -19 -19 -19 -19 -19
-18 -16 -17 -17 -17 -18 -17 -17 -17 -17 -16 -16 -16 -15 -15 -15 -15 -15 -16 -16 -16 -17 -17 -17 -17 -17 -17 -17 -17 -17 -17 -17 -17 -18 -18 -18 -18 -19 -19 -19 -19 -19 -20 -20
-17 -17 -18 -18 -17 -17 -17 -17 -18 -17 -17 -16 -16 -16 -16 -16 -16 -16 -16 -16 -16 -17 -17 -17 -17 -17 -17 -17 -17 -17 -18 -18 -18 -18 -18 -19 -19 -19 -19 -20 -20 -20 -20 -20
-17 -17 -18 -18 -17 -18 -18 -18 -18 -17 -16 -16 -16 -16 -16 -16 -16 -17 -17 -17 -17 -17 -17 -17 -17 -17 -17 -17 -18 -18 -18 -18 -18 -19 -19 -19 -19 -19 -19 -20 -20 -20 -20 -21
-17 -18 -17 -18 -17 -17 -17 -18 -17 -16 -16 -16 -16 -16 -16 -16 -17 -17 -17 -17 -17 -17 -17 -17 -18 -18 -18 -18 -18 -18 -18 -19 -19 -19 -19 -19 -19 -20 -20 -20 -21 -21 -21 -21
-18 -19 -18 -17 -17 -18 -17 -17 -17 -17 -16 -17 -17 -17 -17 -17 -17 -17 -17 -18 -18 -18 -18 -18 -17 -17 -18 -18 -18 -18 -19 -19 -19 -19 -20 -20 -20 -20 -20 -21 -21 -21 -21 -22
-19 -19 -18 -18 -18 -17 -17 -17 -17 -17 -17 -17 -17 -17 -17 -17 -18 -18 -18 -18 -18 -18 -18 -18 -18 -18 -18 -18 -18 -19 -19 -19 -20 -20 -20 -20 -21 -21 -21 -21 -21 -22 -22 -23
-20 -19 -19 -19 -19 -18 -18 -18 -17 -17 -17 -17 -17 -17 -18 -18 -18 -18 -17 -17 -18 -18 -18 -18 -18 -18 -19 -18 -19 -19 -19 -20 -20 -20 -20 -20 -21 -22 -22 -22 -23 -23 -25 -25
-18 -20 -19 -19 -18 -18 -18 -17 -18 -18 -17 -17 -17 -17 -17 -17 -17 -18 -18 -18 -18 -18 -19 -19 -19 -19 -19 -19 -19 -19 -20 -20 -20 -21 -21 -21 -22 -22 -23 -23 -24 -25 -26 -27
-18 -18 -19 -18 -19 -19 -18 -18 -18 -18 -18 -17 -17 -18 -18 -18 -18 -18 -18 -18 -18 -18 -19 -19 -19 -19 -19 -19 -20 -20 -20 -20 -20 -21 -21 -22 -22 -23 -24 -25 -26 -27 -27 -28
-17 -17 -17 -18 -18 -18 -18 -18 -18 -18 -18 -18 -18 -18 -18 -18 -18 -18 -18 -18 -18 -19 -19 -19 -19 -19 -20 -20 -21 -20 -20 -21 -21 -22 -22 -23 -24 -24 -25 -26 -27 -28 -29 -30
-17 -17 -17 -17 -17 -17 -18 -18 -18 -18 -17 -18 -18 -18 -18 -18 -18 -18 -18 -18 -18 -19 -19 -20 -20 -20 -20 -20 -21 -21 -21 -21 -22 -23 -23 -24 -24 -25 -27 -28 -29 -30 -31 -31
-17 -17 -17 -17 -18 -18 -18 -18 -17 -17 -17 -17 -18 -18 -18 -18 -18 -18 -19 -19 -19 -20 -20 -20 -20 -21 -21 -21 -21 -21 -22 -22 -23 -24 -24 -25 -26 -27 -28 -29 -30 -31 -32 -32
-17 -18 -18 -18 -18 -18 -18 -18 -18 -18 -18 -18 -18 -18 -18 -18 -18 -19 -19 -19 -20 -20 -20 -21 -21 -21 -21 -22 -22 -23 -23 -24 -24 -25 -26 -26 -27 -29 -30 -31 -32 -32 -32 -33
-18 -19 -18 -18 -18 -18 -18 -18 -18 -18 -18 -18 -18 -19 -19 -19 -19 -19 -20 -20 -20 -21 -21 -21 -22 -22 -22 -23 -23 -24 -24 -25 -26 -26 -27 -28 -30 -31 -31 -32 -32 -32 -33 -34
-19 -19 -18 -18 -18 -18 -18 -19 -19 -19 -19 -19 -19 -20 -20 -20 -20 -20 -21 -21 -21 -21 -22 -22 -22 -23 -23 -24 -25 -25 -26 -26 -27 -28 -30 -30 -31 -32 -32 -32 -33 -33 -34 -35
-19 -19 -19 -19 -19 -20 -20 -20 -20 -20 -20 -20 -20 -21 -20 -21 -21 -21 -21 -21 -22 -22 -22 -23 -24 -24 -25 -26 -26 -27 -28 -28 -30 -30 -31 -31 -32 -32 -33 -33 -34 -34 -35 -36
-20 -20 -20 -20 -20 -20 -20 -20 -20 -20 -20 -21 -21 -21 -21 -22 -22 -22 -22 -22 -23 -24 -24 -25 -26 -26 -26 -27 -28 -29 -30 -30 -31 -31 -32 -32 -32 -33 -33 -34 -35 -36 -36 -37
-20 -20 -20 -20 -21 -21 -21 -21 -21 -21 -22 -22 -22 -22 -22 -23 -23 -24 -24 -25 -25 -26 -26 -26 -27 -28 -29 -29 -30 -30 -31 -31 -31 -31 -32 -32 -32 -33 -34 -35 -36 -36 -37 -38
-21 -21 -21 -21 -22 -22 -22 -22 -23 -23 -23 -23 -24 -24 -24 -25 -25 -25 -25 -26 -27 -27 -28 -29 -29 -29 -30 -30 -31 -31 -31 -31 -32 -32 -32 -32 -33 -34 -35 -36 -37 -37 -38 -39

GFSNGP_500_temp_048.txt.gz
Temp
-17 -16 -16 -16 -15 -15 -15 -16 -16 -16 -16 -16 -16 -15 -15 -15 -15 -16 -15 -15 -15 -15 -15 -15 -15 -15 -15 -16 -16 -16 -16 -16 -17 -17 -17 -17 -17 -17 -17 -17 -17 -16 -16 -16
-16 -15 -16 -15 -15 -16 -16 -16 -16 -17 -17 -17 -16 -16 -16 -16 -16 -14 -15 -15 -15 -15 -15 -15 -15 -15 -15 -16 -16 -16 -17 -17 -17 -17 -17 -17 -17 -17 -17 -17 -16 -16 -16 -16
-16 -16 -17 -16 -16 -16 -16 -16 -16 -16 -16 -17 -17 -16 -16 -16 -15 -15 -14 -15 -16 -16 -15 -15 -15 -15 -16 -16 -17 -17 -17 -17 -18 -17 -17 -17 -17 -16 -16 -16 -16 -17 -17 -17
-17 -17 -16 -15 -16 -16 -16 -16 -16 -17 -17 -17 -17 -17 -17 -15 -15 -15 -15 -15 -15 -16 -15 -15 -16 -16 -16 -16 -17 -17 -18 -17 -17 -17 -17 -17 -17 -17 -17 -17 -17 -17 -17 -17
-17 -17 -16 -16 -16 -15 -15 -16 -16 -16 -17 -17 -17 -17 -15 -15 -15 -15 -15 -15 -15 -15 -16 -16 -16 -16 -16 -17 -17 -17 -17 -17 -17 -17 -17 -17 -17 -17 -17 -17 -17 -17 -18 -18
-17 -17 -16 -15 -16 -16 -16 -15 -16 -16 -16 -17 -17 -16 -15 -15 -15 -15 -15 -14 -15 -15 -15 -16 -16 -16 -16 -16 -17 -17 -17 -17 -17 -17 -17 -17 -17 -17 -17 -17 -18 -18 -18 -18
-17 -17 -16 -15 -16 -17 -16 -15 -17 -17 -17 -17 -16 -16 -15 -15 -15 -15 -15 -15 -14 -15 -15 -16 -16 -16 -17 -17 -17 -17 -17 -17 -17 -17 -17 -17 -17 -17 -17 -17 -18 -18 -18 -19
-17 -17 -16 -16 -17 -17 -16 -17 -17 -18 -18 -18 -17 -16 -16 -15 -15 -15 -15 -15 -15 -15 -15 -16 -16 -16 -17 -17 -17 -17 -17 -17 -17 -17 -17 -17 -17 -17 -18 -18 -18 -19 -19 -19
-17 -17 -16 -17 -17 -18 -18 -18 -18 -18 -17 -17 -17 -17 -16 -16 -16 -15 -15 -15 -15 -15 -15 -16 -16 -17 -17 -17 -17 -17 -17 -17 -17 -17 -17 -17 -17 -18 -18 -18 -19 -19 -19 -20
-17 -17 -17 -17 -17 -17 -18 -18 -18 -18 -17 -17 -17 -17 -16 -16 -16 -16 -16 -16 -16 -16 -16 -16 -16 -17 -17 -17 -17 -17 -17 -17 -17 -17 -18 -18 -18 -18 -19 -19 -19 -19 -20 -20
-17 -17 -16 -17 -17 -17 -18 -18 -18 -18 -18 -18 -17 -16 -16 -16 -16 -16 -16 -16 -16 -16 -16 -17 -17 -17 -17 -17 -17 -17 -17 -17 -18 -18 -18 -19 -19 -19 -19 -19 -20 -20 -20 -20
-17 -17 -17 -17 -16 -17 -17 -17 -18 -18 -18 -18 -18 -16 -16 -16 -16 -17 -16 -16 -17 -17 -17 -17 -17 -17 -17 -17 -17 -17 -18 -18 -18 -19 -19 -19 -19 -19 -19 -20 -20 -20 -20 -20
-19 -18 -18 -17 -17 -17 -17 -18 -17 -17 -17 -18 -17 -17 -17 -17 -17 -17 -17 -17 -17 -17 -17 -17 -17 -17 -18 -18 -18 -18 -18 -18 -19 -19 -19 -19 -19 -19 -20 -20 -20 -20 -21 -21
-21 -19 -18 -18 -18 -18 -17 -18 -17 -17 -17 -17 -17 -17 -17 -17 -17 -17 -17 -17 -18 -18 -18 -18 -18 -18 -18 -18 -18 -18 -18 -19 -19 -19 -19 -19 -19 -20 -20 -20 -21 -21 -21 -22
-20 -20 -20 -19 -19 -19 -18 -18 -17 -17 -17 -17 -17 -17 -17 -17 -17 -17 -17 -17 -18 -18 -18 -18 -18 -18 -18 -18 -18 -18 -19 -19 -19 -19 -19 -20 -20 -20 -21 -21 -21 -21 -21 -22
-19 -19 -19 -19 -19 -18 -19 -18 -18 -18 -18 -18 -17 -17 -17 -17 -17 -17 -17 -17 -18 -18 -18 -18 -18 -18 -18 -18 -18 -18 -19 -19 -19 -19 -20 -20 -20 -21 -21 -21 -21 -22 -22 -23
-19 -19 -18 -18 -18 -18 -18 -19 -18 -18 -19 -18 -18 -18 -18 -18 -18 -18 -18 -18 -18 -18 -18 -18 -18 -18 -19 -19 -19 -19 -19 -19 -19 -20 -20 -21 -21 -21 -21 -22 -22 -23 -24 -24
-18 -18 -18 -18 -17 -17 -18 -18 -18 -18 -18 -19 -19 -19 -18 -18 -19 -19 -18 -18 -18 -18 -18 -18 -18 -19 -19 -19 -19 -19 -20 -20 -20 -20 -20 -21 -22 -22 -22 -23 -24 -24 -25 -25
-18 -18 -17 -17 -17 -17 -17 -18 -18 -18 -18 -18 -18 -18 -19 -18 -18 -18 -18 -18 -18 -18 -18 -19 -18 -19 -19 -19 -20 -20 -20 -20 -20 -21 -21 -22 -22 -22 -23 -24 -25 -25 -26 -27
-18 -17 -17 -17 -17 -17 -17 -17 -18 -18 -18 -18 -18 -18 -18 -18 -18 -18 -18 -19 -18 -18 -18 -19 -19 -19 -20 -20 -20 -21 -21 -21 -22 -22 -22 -23 -23 -24 -25 -26 -26 -26 -27 -29
-18 -18 -18 -18 -18 -18 -18 -18 -18 -18 -18 -18 -18 -18 -18 -18 -19 -19 -19 -19 -19 -19 -19 -20 -20 -20 -20 -21 -21 -21 -22 -22 -22 -23 -23 -24 -25 -26 -26 -26 -27 -28 -29 -31
-19 -19 -18 -18 -18 -18 -19 -19 -19 -19 -19 -19 -18 -18 -18 -19 -19 -19 -19 -20 -20 -20 -20 -20 -20 -21 -21 -21 -21 -22 -22 -23 -24 -25 -25 -25 -26 -26 -27 -28 -29 -30 -31 -32
-19 -19 -19 -19 -19 -19 -19 -19 -19 -19 -19 -19 -19 -19 -19 -19 -20 -20 -20 -20 -20 -21 -21 -21 -21 -22 -22 -23 -23 -23 -24 -24 -25 -25 -26 -26 -27 -28 -29 -30 -31 -31 -32 -32
-20 -19 -19 -19 -20 -20 -20 -20 -20 -20 -20 -20 -20 -20 -20 -20 -20 -20 -20 -21 -21 -21 -22 -23 -23 -23 -23 -24 -24 -25 -25 -25 -26 -26 -27 -28 -29 -30 -31 -31 -31 -32 -32 -33
-20 -21 -21 -21 -20 -20 -21 -21 -21 -21 -21 -21 -21 -21 -21 -21 -22 -22 -22 -22 -23 -23 -24 -24 -24 -24 -25 -25 -25 -25 -26 -26 -27 -28 -29 -30 -31 -31 -31 -32 -32 -32 -33 -33
-21 -21 -21 -21 -21 -21 -22 -22 -22 -22 -22 -22 -23 -23 -23 -23 -23 -24 -24 -24 -24 -24 -24 -24 -25 -25 -26 -26 -27 -27 -28 -29 -30 -30 -31 -31 -31 -32 -32 -32 -33 -33 -34 -34
-22 -22 -22 -22 -22 -22 -22 -23 -23 -23 -23 -23 -24 -24 -24 -24 -24 -24 -24 -24 -25 -25 -26 -26 -27 -27 -28 -29 -30 -30 -31 -31 -31 -31 -31 -31 -32 -32 -33 -33 -33 -34 -35 -36

GFSNGP_500_temp_051.txt.gz
Temp
-15 -16 -16 -16 -15 -15 -15 -15 -15 -15 -15 -15 -16 -16 -17 -16 -15 -15 -15 -14 -14 -14 -14 -14 -15 -15 -15 -15 -15 -15 -15 -16 -16 -16 -16 -16 -17 -17 -17 -17 -17 -17 -17 -17
-15 -16 -16 -16 -16 -16 -16 -16 -16 -16 -15 -15 -16 -17 -16 -16 -16 -15 -16 -15 -15 -15 -15 -14 -14 -15 -15 -15 -15 -15 -15 -15 -16 -16 -16 -16 -17 -17 -17 -17 -17 -17 -17 -17
-15 -17 -17 -16 -15 -15 -15 -16 -16 -16 -16 -17 -17 -17 -16 -16 -16 -15 -15 -14 -15 -15 -15 -14 -14 -15 -15 -15 -15 -15 -15 -15 -15 -16 -17 -17 -17 -17 -17 -17 -17 -17 -17 -17
-16 -17 -16 -15 -15 -15 -15 -16 -16 -16 -16 -16 -16 -16 -17 -17 -17 -17 -16 -15 -15 -15 -15 -15 -15 -15 -15 -15 -16 -16 -16 -16 -16 -16 -17 -17 -17 -17 -17 -17 -17 -17 -17 -17
-17 -17 -15 -15 -15 -16 -16 -15 -16 -16 -16 -16 -16 -16 -17 -17 -17 -17 -16 -16 -15 -15 -15 -15 -14 -14 -15 -15 -16 -16 -16 -16 -17 -17 -16 -17 -17 -17 -17 -17 -17 -17 -17 -17
-17 -17 -15 -14 -16 -17 -17 -15 -16 -16 -16 -17 -17 -17 -17 -17 -16 -16 -16 -15 -16 -15 -15 -15 -15 -15 -15 -15 -15 -16 -16 -16 -16 -17 -17 -17 -17 -17 -17 -17 -17 -17 -17 -17
-17 -17 -15 -15 -16 -17 -17 -14 -16 -17 -17 -16 -16 -17 -17 -17 -16 -16 -16 -16 -16 -15 -15 -15 -14 -14 -15 -15 -15 -16 -16 -16 -17 -17 -17 -17 -17 -17 -17 -17 -18 -17 -17 -18
-18 -17 -16 -17 -17 -17 -16 -16 -17 -18 -17 -17 -17 -17 -17 -17 -16 -16 -16 -16 -15 -15 -15 -15 -15 -15 -15 -15 -16 -16 -16 -16 -17 -17 -17 -17 -17 -17 -17 -18 -18 -18 -18 -19
-18 -17 -17 -17 -17 -17 -16 -17 -18 -18 -18 -17 -18 -17 -17 -17 -16 -16 -16 -15 -15 -15 -15 -15 -15 -15 -15 -16 -16 -16 -16 -17 -17 -17 -17 -17 -17 -18 -18 -18 -18 -18 -19 -19
-19 -18 -18 -18 -18 -17 -17 -17 -17 -18 -18 -18 -17 -17 -16 -17 -17 -17 -16 -16 -16 -16 -16 -16 -16 -16 -16 -16 -16 -16 -17 -17 -17 -17 -17 -18 -18 -18 -18 -19 -19 -19 -19 -20
-19 -19 -18 -18 -17 -17 -17 -16 -17 -18 -18 -18 -18 -17 -17 -17 -17 -17 -16 -16 -16 -16 -16 -16 -16 -16 -17 -17 -17 -17 -17 -18 -18 -18 -18 -18 -18 -19 -19 -19 -19 -19 -20 -20
-19 -19 -19 -18 -17 -17 -17 -17 -17 -17 -17 -17 -17 -17 -17 -18 -18 -17 -16 -17 -16 -17 -17 -17 -17 -17 -17 -17 -17 -18 -18 -18 -18 -18 -18 -19 -19 -19 -19 -19 -19 -19 -20 -20
-20 -20 -19 -18 -18 -17 -17 -17 -17 -17 -17 -17 -18 -18 -18 -17 -17 -18 -17 -17 -17 -17 -17 -17 -17 -17 -18 -18 -18 -18 -18 -18 -18 -19 -18 -19 -19 -19 -19 -19 -19 -20 -20 -20
-20 -21 -20 -18 -18 -18 -18 -17 -17 -17 -17 -18 -17 -17 -18 -18 -17 -17 -17 -17 -17 -17 -17 -18 -18 -18 -18 -18 -19 -19 -19 -19 -19 -18 -18 -19 -19 -19 -19 -19 -20 -20 -20 -20
-19 -19 -18 -19 -19 -19 -18 -18 -18 -17 -17 -17 -18 -17 -17 -17 -17 -17 -17 -17 -17 -17 -18 -17 -17 -17 -17 -18 -18 -18 -18 -18 -18 -18 -19 -19 -19 -20 -20 -20 -20 -20 -21 -21
-19 -20 -20 -20 -20 -20 -20 -19 -19 -19 -18 -18 -18 -18 -18 -18 -18 -18 -17 -17 -17 -18 -18 -18 -18 -18 -18 -18 -18 -18 -18 -18 -19 -19 -19 -20 -20 -20 -20 -21 -21 -21 -21 -22
-19 -20 -20 -20 -19 -19 -19 -20 -20 -19 -19 -19 -19 -19 -19 -19 -19 -19 -18 -18 -18 -18 -18 -18 -18 -19 -18 -18 -18 -18 -18 -18 -19 -19 -20 -20 -21 -21 -21 -21 -21 -22 -22 -23
-19 -19 -19 -19 -19 -18 -18 -18 -18 -18 -19 -19 -19 -19 -19 -19 -19 -19 -19 -19 -19 -19 -18 -18 -19 -19 -19 -19 -19 -19 -19 -19 -19 -20 -20 -21 -21 -21 -21 -22 -22 -23 -23 -23
-19 -19 -18 -18 -18 -18 -18 -18 -18 -18 -18 -19 -19 -19 -19 -19 -19 -19 -19 -19 -19 -18 -18 -18 -19 -19 -19 -19 -19 -19 -19 -20 -20 -20 -21 -21 -22 -22 -22 -23 -23 -24 -24 -25
-18 -18 -18 -18 -18 -18 -17 -17 -17 -17 -18 -19 -20 -19 -19 -19 -19 -19 -19 -19 -19 -19 -19 -19 -19 -19 -19 -19 -20 -20 -20 -21 -21 -21 -22 -22 -22 -23 -24 -24 -25 -25 -25 -26
-19 -19 -19 -19 -19 -18 -18 -18 -18 -18 -19 -20 -19 -20 -20 -20 -20 -20 -20 -19 -19 -19 -19 -19 -20 -20 -20 -20 -20 -21 -21 -21 -22 -22 -23 -23 -24 -25 -25 -25 -25 -25 -26 -26
-20 -20 -20 -19 -19 -19 -19 -19 -19 -19 -19 -19 -19 -19 -19 -20 -19 -19 -19 -20 -20 -20 -20 -21 -21 -21 -21 -21 -22 -22 -23 -23 -23 -24 -24 -24 -25 -25 -25 -25 -26 -26 -27 -29
-20 -20 -20 -20 -20 -19 -19 -19 -19 -19 -19 -20 -20 -20 -20 -20 -20 -20 -21 -21 -21 -21 -22 -22 -22 -22 -22 -23 -23 -24 -24 -24 -24 -24 -25 -25 -25 -25 -26 -27 -27 -28 -29 -30
-20 -20 -20 -20 -20 -20 -20 -20 -20 -20 -20 -21 -21 -21 -21 -21 -21 -22 -22 -22 -22 -22 -22 -23 -23 -23 -24 -24 -24 -24 -24 -25 -25 -25 -25 -26 -27 -27 -28 -28 -29 -30 -31 -31
-21 -21 -21 -21 -22 -22 -22 -22 -22 -22 -22 -22 -22 -22 -22 -22 -22 -22 -23 -23 -23 -23 -23 -23 -24 -24 -25 -25 -25 -25 -25 -25 -26 -27 -27 -28 -29 -30 -30 -31 -31 -31 -31 -32
-23 -23 -23 -23 -23 -23 -23 -23 -23 -23 -23 -23 -23 -23 -23 -23 -23 -24 -24 -24 -24 -25 -25 -25 -25 -25 -26 -26 -27 -27 -28 -28 -29 -29 -30 -30 -31 -31 -31 -31 -32 -32 -32 -33
-24 -24 -24 -24 -24 -24 -24 -24 -25 -25 -25 -25 -25 -25 -25 -25 -25 -25 -26 -26 -26 -26 -26 -27 -27 -27 -28 -28 -29 -30 -30 -31 -31 -31 -32 -32 -32 -32 -32 -32 -33 -33 -33 -33